Time,TemperatureF,DewpointF,PressureIn,WindDirection,WindDirectionDegrees,WindSpeedMPH,WindSpeedGustMPH,Humidity,HourlyPrecipIn,Conditions,Clouds,dailyrainin,SoftwareType,DateUTC
2013-05-24 00:00:00,48.2,47.1,30.25,ESE,105,0.0,0.0,96,0.00,,,0.00,Wunderground v.1.15,2013-05-24 05:00:00,
2013-05-24 00:01:00,48.2,47.1,30.25,ESE,104,0.0,0.0,96,0.00,,,0.00,Wunderground v.1.15,2013-05-24 05:01:00,
2013-05-24 00:02:00,48.2,47.1,30.25,ESE,105,0.0,0.0,96,0.00,,,0.00,Wunderground v.1.15,2013-05-24 05:02:00,
2013-05-24 00:04:00,48.1,47.0,30.25,ESE,104,0.0,0.0,96,0.00,,,0.00,Wunderground v.1.15,2013-05-24 05:04:00,
2013-05-24 00:06:00,48.1,47.0,30.25,ESE,104,0.0,0.0,96,0.00,,,0.00,Wunderground v.1.15,2013-05-24 05:06:00,
2013-05-24 00:07:00,48.1,47.0,30.25,ESE,104,0.0,0.0,96,0.00,,,0.00,Wunderground v.1.15,2013-05-24 05:07:00,
2013-05-24 00:09:00,48.1,47.0,30.25,ESE,105,0.0,0.0,96,0.00,,,0.00,Wunderground v.1.15,2013-05-24 05:09:00,
2013-05-24 00:10:00,48.1,47.0,30.25,ESE,105,0.0,0.0,96,0.00,,,0.00,Wunderground v.1.15,2013-05-24 05:10:00,
2013-05-24 00:11:00,48.2,47.1,30.25,East,98,0.0,0.0,96,0.00,,,0.00,Wunderground v.1.15,2013-05-24 05:11:00,
2013-05-24 00:14:00,48.3,47.2,30.25,East,99,0.0,0.0,96,0.00,,,0.00,Wunderground v.1.15,2013-05-24 05:14:00,
2013-05-24 00:15:00,48.3,47.2,30.25,NE,47,0.0,0.0,96,0.00,,,0.00,Wunderground v.1.15,2013-05-24 05:15:00,
2013-05-24 00:16:00,48.3,47.2,30.25,NE,46,0.0,0.0,96,0.00,,,0.00,Wunderground v.1.15,2013-05-24 05:16:00,
2013-05-24 00:20:00,48.3,47.2,30.25,NE,46,0.0,0.0,96,0.00,,,0.00,Wunderground v.1.15,2013-05-24 05:20:00,
2013-05-24 00:24:00,48.2,47.1,30.26,NNE,20,0.0,0.0,96,0.00,,,0.00,Wunderground v.1.15,2013-05-24 05:24:00,
2013-05-24 00:25:00,48.2,47.1,30.25,NNE,22,0.0,0.0,96,0.00,,,0.00,Wunderground v.1.15,2013-05-24 05:25:00,
2013-05-24 00:26:00,48.2,47.1,30.26,NNE,22,0.0,0.0,96,0.00,,,0.00,Wunderground v.1.15,2013-05-24 05:26:00,
2013-05-24 00:28:00,48.2,47.1,30.25,NNE,20,0.0,0.0,96,0.00,,,0.00,Wunderground v.1.15,2013-05-24 05:28:00,
2013-05-24 00:29:00,48.1,47.0,30.26,NNE,22,0.0,0.0,96,0.00,,,0.00,Wunderground v.1.15,2013-05-24 05:29:00,
2013-05-24 00:30:00,48.1,47.0,30.26,NNE,20,0.0,0.0,96,0.00,,,0.00,Wunderground v.1.15,2013-05-24 05:30:00,
2013-05-24 00:32:00,48.0,46.9,30.26,NNE,20,0.0,0.0,96,0.00,,,0.00,Wunderground v.1.15,2013-05-24 05:32:00,
2013-05-24 00:34:00,48.0,46.9,30.26,NNE,26,0.0,0.0,96,0.00,,,0.00,Wunderground v.1.15,2013-05-24 05:34:00,
2013-05-24 00:37:00,48.0,46.9,30.26,NNE,26,0.0,0.0,96,0.00,,,0.00,Wunderground v.1.15,2013-05-24 05:37:00,
2013-05-24 00:38:00,48.0,46.9,30.26,NNE,26,0.0,0.0,96,0.00,,,0.00,Wunderground v.1.15,2013-05-24 05:38:00,
2013-05-24 00:39:00,47.9,46.8,30.26,NNE,26,0.0,0.0,96,0.00,,,0.00,Wunderground v.1.15,2013-05-24 05:39:00,
2013-05-24 00:43:00,47.8,46.7,30.26,NNE,26,0.0,0.0,96,0.00,,,0.00,Wunderground v.1.15,2013-05-24 05:43:00,
2013-05-24 00:44:00,47.7,46.6,30.26,NNE,26,0.0,0.0,96,0.00,,,0.00,Wunderground v.1.15,2013-05-24 05:44:00,
2013-05-24 00:47:00,47.7,46.3,30.26,ENE,65,0.0,0.0,95,0.00,,,0.00,Wunderground v.1.15,2013-05-24 05:47:00,
2013-05-24 00:48:00,47.7,46.6,30.26,ENE,65,0.0,0.0,96,0.00,,,0.00,Wunderground v.1.15,2013-05-24 05:48:00,
2013-05-24 00:50:00,47.7,46.6,30.26,ENE,65,0.0,0.0,96,0.00,,,0.00,Wunderground v.1.15,2013-05-24 05:50:00,
2013-05-24 00:51:00,47.6,46.5,30.26,ENE,65,0.0,0.0,96,0.00,,,0.00,Wunderground v.1.15,2013-05-24 05:51:00,
2013-05-24 00:53:00,47.6,46.5,30.27,ENE,65,0.0,0.0,96,0.00,,,0.00,Wunderground v.1.15,2013-05-24 05:53:00,
2013-05-24 00:54:00,47.5,46.4,30.27,ENE,65,0.0,0.0,96,0.00,,,0.00,Wunderground v.1.15,2013-05-24 05:54:00,
2013-05-24 00:55:00,47.5,46.4,30.27,ENE,65,0.0,0.0,96,0.00,,,0.00,Wunderground v.1.15,2013-05-24 05:55:00,
2013-05-24 00:57:00,47.4,46.3,30.27,ENE,65,0.0,0.0,96,0.00,,,0.00,Wunderground v.1.15,2013-05-24 05:57:00,
2013-05-24 00:59:00,47.3,46.2,30.27,North,8,0.0,0.0,96,0.00,,,0.00,Wunderground v.1.15,2013-05-24 05:59:00,
2013-05-24 01:00:00,47.3,46.2,30.27,North,11,0.0,0.0,96,0.00,,,0.00,Wunderground v.1.15,2013-05-24 06:00:00,
2013-05-24 01:02:00,47.3,46.2,30.27,ESE,123,0.0,0.0,96,0.00,,,0.00,Wunderground v.1.15,2013-05-24 06:02:00,
2013-05-24 01:04:00,47.3,46.2,30.27,ESE,120,0.0,0.0,96,0.00,,,0.00,Wunderground v.1.15,2013-05-24 06:04:00,
2013-05-24 01:06:00,47.3,46.2,30.27,ESE,120,0.0,0.0,96,0.00,,,0.00,Wunderground v.1.15,2013-05-24 06:06:00,
2013-05-24 01:07:00,47.2,46.1,30.27,ESE,120,0.0,0.0,96,0.00,,,0.00,Wunderground v.1.15,2013-05-24 06:07:00,
2013-05-24 01:11:00,47.2,46.1,30.28,ESE,122,0.0,0.0,96,0.00,,,0.00,Wunderground v.1.15,2013-05-24 06:11:00,
2013-05-24 01:13:00,47.2,46.1,30.27,ESE,122,0.0,0.0,96,0.00,,,0.00,Wunderground v.1.15,2013-05-24 06:13:00,
2013-05-24 01:14:00,47.1,46.0,30.27,ESE,123,0.0,0.0,96,0.00,,,0.00,Wunderground v.1.15,2013-05-24 06:14:00,
2013-05-24 01:15:00,47.2,46.1,30.27,ESE,122,0.0,0.0,96,0.00,,,0.00,Wunderground v.1.15,2013-05-24 06:15:00,
2013-05-24 01:18:00,47.0,45.9,30.28,ESE,122,0.0,0.0,96,0.00,,,0.00,Wunderground v.1.15,2013-05-24 06:18:00,
2013-05-24 01:19:00,47.0,45.9,30.28,ESE,122,0.0,0.0,96,0.00,,,0.00,Wunderground v.1.15,2013-05-24 06:19:00,
2013-05-24 01:20:00,47.0,45.9,30.28,ESE,122,0.0,0.0,96,0.00,,,0.00,Wunderground v.1.15,2013-05-24 06:20:00,
2013-05-24 01:21:00,46.9,45.8,30.28,ESE,122,0.0,0.0,96,0.00,,,0.00,Wunderground v.1.15,2013-05-24 06:21:00,
2013-05-24 01:25:00,46.9,45.8,30.28,ESE,122,0.0,0.0,96,0.00,,,0.00,Wunderground v.1.15,2013-05-24 06:25:00,
2013-05-24 01:26:00,46.9,45.8,30.28,ESE,123,0.0,0.0,96,0.00,,,0.00,Wunderground v.1.15,2013-05-24 06:26:00,
2013-05-24 01:27:00,46.8,45.7,30.28,ESE,122,0.0,0.0,96,0.00,,,0.00,Wunderground v.1.15,2013-05-24 06:27:00,
2013-05-24 01:28:00,46.8,45.7,30.28,ESE,123,0.0,0.0,96,0.00,,,0.00,Wunderground v.1.15,2013-05-24 06:28:00,
2013-05-24 01:31:00,46.6,45.5,30.28,ESE,123,0.0,0.0,96,0.00,,,0.00,Wunderground v.1.15,2013-05-24 06:31:00,
2013-05-24 01:32:00,46.5,45.4,30.28,ESE,122,0.0,0.0,96,0.00,,,0.00,Wunderground v.1.15,2013-05-24 06:32:00,
2013-05-24 01:33:00,46.5,45.4,30.28,ESE,123,0.0,0.0,96,0.00,,,0.00,Wunderground v.1.15,2013-05-24 06:33:00,
2013-05-24 01:36:00,46.5,45.4,30.28,NE,46,0.0,0.0,96,0.00,,,0.00,Wunderground v.1.15,2013-05-24 06:36:00,
2013-05-24 01:37:00,46.5,45.4,30.28,East,84,0.0,0.0,96,0.00,,,0.00,Wunderground v.1.15,2013-05-24 06:37:00,
2013-05-24 01:40:00,46.6,45.5,30.28,East,95,0.0,0.0,96,0.00,,,0.00,Wunderground v.1.15,2013-05-24 06:40:00,
2013-05-24 01:41:00,46.6,45.5,30.28,East,95,0.0,0.0,96,0.00,,,0.00,Wunderground v.1.15,2013-05-24 06:41:00,
2013-05-24 01:42:00,46.5,45.4,30.28,East,96,0.0,0.0,96,0.00,,,0.00,Wunderground v.1.15,2013-05-24 06:42:00,
2013-05-24 01:43:00,46.5,45.4,30.28,ESE,103,0.0,0.0,96,0.00,,,0.00,Wunderground v.1.15,2013-05-24 06:43:00,
2013-05-24 01:44:00,46.5,45.4,30.28,East,85,0.0,0.0,96,0.00,,,0.00,Wunderground v.1.15,2013-05-24 06:44:00,
2013-05-24 01:48:00,46.5,45.4,30.28,SE,134,0.0,0.0,96,0.00,,,0.00,Wunderground v.1.15,2013-05-24 06:48:00,
2013-05-24 01:49:00,46.5,45.4,30.28,ENE,72,0.0,0.0,96,0.00,,,0.00,Wunderground v.1.15,2013-05-24 06:49:00,
2013-05-24 01:51:00,46.4,45.3,30.29,NE,52,0.0,0.0,96,0.00,,,0.00,Wunderground v.1.15,2013-05-24 06:51:00,
2013-05-24 01:52:00,46.4,45.3,30.29,NE,55,0.0,0.0,96,0.00,,,0.00,Wunderground v.1.15,2013-05-24 06:52:00,
2013-05-24 01:54:00,46.3,45.2,30.29,ENE,68,0.0,0.0,96,0.00,,,0.00,Wunderground v.1.15,2013-05-24 06:54:00,
2013-05-24 01:56:00,46.3,45.2,30.29,ENE,68,0.0,0.0,96,0.00,,,0.00,Wunderground v.1.15,2013-05-24 06:56:00,
2013-05-24 01:57:00,46.3,45.2,30.29,ENE,68,0.0,0.0,96,0.00,,,0.00,Wunderground v.1.15,2013-05-24 06:57:00,
2013-05-24 01:59:00,46.1,45.0,30.29,ENE,77,0.0,0.0,96,0.00,,,0.00,Wunderground v.1.15,2013-05-24 06:59:00,
2013-05-24 02:02:00,46.0,44.9,30.29,ENE,77,0.0,0.0,96,0.00,,,0.00,Wunderground v.1.15,2013-05-24 07:02:00,
2013-05-24 02:03:00,45.9,44.8,30.29,ENE,77,0.0,0.0,96,0.00,,,0.00,Wunderground v.1.15,2013-05-24 07:03:00,
2013-05-24 02:06:00,45.7,44.4,30.29,SE,134,0.0,0.0,95,0.00,,,0.00,Wunderground v.1.15,2013-05-24 07:06:00,
2013-05-24 02:07:00,45.6,44.3,30.29,ESE,110,0.0,0.0,95,0.00,,,0.00,Wunderground v.1.15,2013-05-24 07:07:00,
2013-05-24 02:08:00,45.6,44.3,30.29,ESE,111,0.0,0.0,95,0.00,,,0.00,Wunderground v.1.15,2013-05-24 07:08:00,
2013-05-24 02:13:00,45.5,44.4,30.30,NE,56,0.0,0.0,96,0.00,,,0.00,Wunderground v.1.15,2013-05-24 07:13:00,
2013-05-24 02:15:00,45.5,44.4,30.30,ENE,65,0.0,0.0,96,0.00,,,0.00,Wunderground v.1.15,2013-05-24 07:15:00,
2013-05-24 02:17:00,45.5,44.4,30.30,East,86,0.0,0.0,96,0.00,,,0.00,Wunderground v.1.15,2013-05-24 07:17:00,
2013-05-24 02:20:00,45.5,44.4,30.30,East,81,0.0,0.0,96,0.00,,,0.00,Wunderground v.1.15,2013-05-24 07:20:00,
2013-05-24 02:21:00,45.5,44.4,30.30,East,95,0.0,0.0,96,0.00,,,0.00,Wunderground v.1.15,2013-05-24 07:21:00,
2013-05-24 02:22:00,45.4,44.3,30.30,East,94,0.0,0.0,96,0.00,,,0.00,Wunderground v.1.15,2013-05-24 07:22:00,
2013-05-24 02:27:00,45.3,44.2,30.30,ESE,120,0.0,0.0,96,0.00,,,0.00,Wunderground v.1.15,2013-05-24 07:27:00,
2013-05-24 02:28:00,45.2,44.1,30.30,East,97,0.0,0.0,96,0.00,,,0.00,Wunderground v.1.15,2013-05-24 07:28:00,
2013-05-24 02:30:00,45.2,44.1,30.30,NE,46,0.0,0.0,96,0.00,,,0.00,Wunderground v.1.15,2013-05-24 07:30:00,
2013-05-24 02:32:00,45.1,44.0,30.31,NE,51,0.0,0.0,96,0.00,,,0.00,Wunderground v.1.15,2013-05-24 07:32:00,
2013-05-24 02:34:00,45.1,43.8,30.31,East,94,0.0,0.0,95,0.00,,,0.00,Wunderground v.1.15,2013-05-24 07:34:00,
2013-05-24 02:35:00,45.1,43.8,30.31,ENE,58,0.0,0.0,95,0.00,,,0.00,Wunderground v.1.15,2013-05-24 07:35:00,
2013-05-24 02:38:00,44.9,43.6,30.31,East,98,0.0,0.0,95,0.00,,,0.00,Wunderground v.1.15,2013-05-24 07:38:00,
2013-05-24 02:39:00,44.9,43.6,30.31,East,96,0.0,0.0,95,0.00,,,0.00,Wunderground v.1.15,2013-05-24 07:39:00,
2013-05-24 02:40:00,44.9,43.6,30.31,ENE,59,0.0,0.0,95,0.00,,,0.00,Wunderground v.1.15,2013-05-24 07:40:00,
2013-05-24 02:42:00,44.8,43.5,30.31,ENE,60,0.0,0.0,95,0.00,,,0.00,Wunderground v.1.15,2013-05-24 07:42:00,
2013-05-24 02:45:00,44.8,43.5,30.31,ENE,70,0.0,0.0,95,0.00,,,0.00,Wunderground v.1.15,2013-05-24 07:45:00,
2013-05-24 02:46:00,44.7,43.4,30.31,ENE,61,0.0,0.0,95,0.00,,,0.00,Wunderground v.1.15,2013-05-24 07:46:00,
2013-05-24 02:47:00,44.7,43.4,30.31,ENE,64,0.0,0.0,95,0.00,,,0.00,Wunderground v.1.15,2013-05-24 07:47:00,
2013-05-24 02:48:00,44.7,43.4,30.31,ENE,64,0.0,0.0,95,0.00,,,0.00,Wunderground v.1.15,2013-05-24 07:48:00,
2013-05-24 02:52:00,44.6,43.3,30.31,ENE,74,0.0,0.0,95,0.00,,,0.00,Wunderground v.1.15,2013-05-24 07:52:00,
2013-05-24 02:54:00,44.4,43.1,30.31,ENE,59,0.0,0.0,95,0.00,,,0.00,Wunderground v.1.15,2013-05-24 07:54:00,
2013-05-24 02:55:00,44.4,43.1,30.31,ENE,59,0.0,0.0,95,0.00,,,0.00,Wunderground v.1.15,2013-05-24 07:55:00,
2013-05-24 03:00:00,44.2,42.9,30.31,ENE,66,0.0,0.0,95,0.00,,,0.00,Wunderground v.1.15,2013-05-24 08:00:00,
2013-05-24 03:01:00,44.1,42.8,30.31,ENE,67,0.0,0.0,95,0.00,,,0.00,Wunderground v.1.15,2013-05-24 08:01:00,
2013-05-24 03:03:00,44.0,42.7,30.31,ENE,66,0.0,0.0,95,0.00,,,0.00,Wunderground v.1.15,2013-05-24 08:03:00,
2013-05-24 03:05:00,44.0,42.7,30.31,ENE,58,0.0,0.0,95,0.00,,,0.00,Wunderground v.1.15,2013-05-24 08:05:00,
2013-05-24 03:06:00,44.0,42.7,30.31,ENE,58,0.0,0.0,95,0.00,,,0.00,Wunderground v.1.15,2013-05-24 08:06:00,
2013-05-24 03:10:00,43.7,42.4,30.31,ENE,58,0.0,0.0,95,0.00,,,0.00,Wunderground v.1.15,2013-05-24 08:10:00,
2013-05-24 03:12:00,43.7,42.4,30.31,ENE,58,0.0,0.0,95,0.00,,,0.00,Wunderground v.1.15,2013-05-24 08:12:00,
2013-05-24 03:14:00,43.6,42.3,30.31,ENE,70,0.0,0.0,95,0.00,,,0.00,Wunderground v.1.15,2013-05-24 08:14:00,
2013-05-24 03:15:00,43.6,42.3,30.31,ENE,70,0.0,0.0,95,0.00,,,0.00,Wunderground v.1.15,2013-05-24 08:15:00,
2013-05-24 03:17:00,43.5,42.2,30.31,ENE,70,0.0,0.0,95,0.00,,,0.00,Wunderground v.1.15,2013-05-24 08:17:00,
2013-05-24 03:20:00,43.4,42.1,30.31,NE,43,0.0,0.0,95,0.00,,,0.00,Wunderground v.1.15,2013-05-24 08:20:00,
2013-05-24 03:21:00,43.4,42.1,30.31,NE,53,0.0,0.0,95,0.00,,,0.00,Wunderground v.1.15,2013-05-24 08:21:00,
2013-05-24 03:22:00,43.4,42.1,30.31,East,96,0.0,0.0,95,0.00,,,0.00,Wunderground v.1.15,2013-05-24 08:22:00,
2013-05-24 03:23:00,43.4,42.1,30.31,ENE,70,0.0,0.0,95,0.00,,,0.00,Wunderground v.1.15,2013-05-24 08:23:00,
2013-05-24 03:25:00,43.4,42.1,30.31,ENE,75,0.0,0.0,95,0.00,,,0.00,Wunderground v.1.15,2013-05-24 08:25:00,
2013-05-24 03:27:00,43.4,42.1,30.31,East,85,0.0,0.0,95,0.00,,,0.00,Wunderground v.1.15,2013-05-24 08:27:00,
2013-05-24 03:30:00,43.3,42.0,30.31,ENE,63,0.0,0.0,95,0.00,,,0.00,Wunderground v.1.15,2013-05-24 08:30:00,
2013-05-24 03:31:00,43.3,42.0,30.31,ENE,65,0.0,0.0,95,0.00,,,0.00,Wunderground v.1.15,2013-05-24 08:31:00,
2013-05-24 03:32:00,43.3,42.0,30.31,NE,46,0.0,0.0,95,0.00,,,0.00,Wunderground v.1.15,2013-05-24 08:32:00,
2013-05-24 03:33:00,43.2,41.9,30.31,ENE,70,0.0,0.0,95,0.00,,,0.00,Wunderground v.1.15,2013-05-24 08:33:00,
2013-05-24 03:37:00,43.1,41.8,30.31,ENE,68,0.0,1.0,95,0.00,,,0.00,Wunderground v.1.15,2013-05-24 08:37:00,
2013-05-24 03:38:00,43.1,41.8,30.31,East,82,0.0,1.0,95,0.00,,,0.00,Wunderground v.1.15,2013-05-24 08:38:00,
2013-05-24 03:39:00,43.1,41.5,30.31,NNE,26,0.0,1.0,94,0.00,,,0.00,Wunderground v.1.15,2013-05-24 08:39:00,
2013-05-24 03:40:00,43.1,41.5,30.31,ENE,70,0.0,0.0,94,0.00,,,0.00,Wunderground v.1.15,2013-05-24 08:40:00,
2013-05-24 03:41:00,43.0,41.4,30.31,East,81,0.0,1.0,94,0.00,,,0.00,Wunderground v.1.15,2013-05-24 08:41:00,
2013-05-24 03:44:00,43.0,41.1,30.31,ENE,75,0.0,2.0,93,0.00,,,0.00,Wunderground v.1.15,2013-05-24 08:44:00,
2013-05-24 03:45:00,42.9,40.7,30.31,East,79,1.0,2.0,92,0.00,,,0.00,Wunderground v.1.15,2013-05-24 08:45:00,
2013-05-24 03:48:00,42.8,40.6,30.31,ESE,113,0.0,2.0,92,0.00,,,0.00,Wunderground v.1.15,2013-05-24 08:48:00,
2013-05-24 03:49:00,42.8,40.6,30.32,ENE,72,0.0,2.0,92,0.00,,,0.00,Wunderground v.1.15,2013-05-24 08:49:00,
2013-05-24 03:52:00,42.6,40.2,30.32,SE,134,0.0,0.0,91,0.00,,,0.00,Wunderground v.1.15,2013-05-24 08:52:00,
2013-05-24 03:54:00,42.5,40.1,30.32,East,95,0.0,0.0,91,0.00,,,0.00,Wunderground v.1.15,2013-05-24 08:54:00,
2013-05-24 03:56:00,42.5,40.1,30.32,East,92,0.0,0.0,91,0.00,,,0.00,Wunderground v.1.15,2013-05-24 08:56:00,
2013-05-24 03:58:00,42.4,40.0,30.32,East,93,0.0,0.0,91,0.00,,,0.00,Wunderground v.1.15,2013-05-24 08:58:00,
2013-05-24 03:59:00,42.3,39.9,30.32,East,93,0.0,0.0,91,0.00,,,0.00,Wunderground v.1.15,2013-05-24 08:59:00,
2013-05-24 04:02:00,42.2,39.8,30.32,NE,37,0.0,0.0,91,0.00,,,0.00,Wunderground v.1.15,2013-05-24 09:02:00,
2013-05-24 04:05:00,42.0,39.6,30.32,East,96,0.0,0.0,91,0.00,,,0.00,Wunderground v.1.15,2013-05-24 09:05:00,
2013-05-24 04:07:00,41.9,39.5,30.33,East,84,0.0,0.0,91,0.00,,,0.00,Wunderground v.1.15,2013-05-24 09:07:00,
2013-05-24 04:08:00,41.8,39.4,30.33,East,84,0.0,0.0,91,0.00,,,0.00,Wunderground v.1.15,2013-05-24 09:08:00,
2013-05-24 04:10:00,41.8,39.4,30.33,East,84,0.0,0.0,91,0.00,,,0.00,Wunderground v.1.15,2013-05-24 09:10:00,
2013-05-24 04:12:00,41.7,39.3,30.33,East,85,0.0,0.0,91,0.00,,,0.00,Wunderground v.1.15,2013-05-24 09:12:00,
2013-05-24 04:13:00,41.6,39.2,30.33,East,85,0.0,0.0,91,0.00,,,0.00,Wunderground v.1.15,2013-05-24 09:13:00,
2013-05-24 04:14:00,41.5,39.1,30.33,East,85,0.0,0.0,91,0.00,,,0.00,Wunderground v.1.15,2013-05-24 09:14:00,
2013-05-24 04:15:00,41.5,39.1,30.33,East,84,0.0,0.0,91,0.00,,,0.00,Wunderground v.1.15,2013-05-24 09:15:00,
2013-05-24 04:19:00,41.2,38.8,30.33,East,84,0.0,0.0,91,0.00,,,0.00,Wunderground v.1.15,2013-05-24 09:19:00,
2013-05-24 04:20:00,41.2,39.1,30.33,East,85,0.0,0.0,92,0.00,,,0.00,Wunderground v.1.15,2013-05-24 09:20:00,
2013-05-24 04:22:00,41.1,39.0,30.33,East,85,0.0,0.0,92,0.00,,,0.00,Wunderground v.1.15,2013-05-24 09:22:00,
2013-05-24 04:23:00,41.0,38.9,30.33,East,85,0.0,0.0,92,0.00,,,0.00,Wunderground v.1.15,2013-05-24 09:23:00,
2013-05-24 04:24:00,40.9,38.8,30.33,East,85,0.0,0.0,92,0.00,,,0.00,Wunderground v.1.15,2013-05-24 09:24:00,
2013-05-24 04:29:00,40.7,38.6,30.33,East,84,0.0,0.0,92,0.00,,,0.00,Wunderground v.1.15,2013-05-24 09:29:00,
2013-05-24 04:30:00,40.6,38.5,30.33,East,85,0.0,0.0,92,0.00,,,0.00,Wunderground v.1.15,2013-05-24 09:30:00,
2013-05-24 04:34:00,40.5,38.6,30.33,East,85,0.0,0.0,93,0.00,,,0.00,Wunderground v.1.15,2013-05-24 09:34:00,
2013-05-24 04:35:00,40.5,38.6,30.33,East,85,0.0,0.0,93,0.00,,,0.00,Wunderground v.1.15,2013-05-24 09:35:00,
2013-05-24 04:37:00,40.4,38.5,30.34,East,85,0.0,0.0,93,0.00,,,0.00,Wunderground v.1.15,2013-05-24 09:37:00,
2013-05-24 04:40:00,40.4,38.5,30.34,East,85,0.0,0.0,93,0.00,,,0.00,Wunderground v.1.15,2013-05-24 09:40:00,
2013-05-24 04:42:00,40.3,38.4,30.34,East,85,0.0,0.0,93,0.00,,,0.00,Wunderground v.1.15,2013-05-24 09:42:00,
2013-05-24 04:44:00,40.2,38.6,30.34,East,85,0.0,0.0,94,0.00,,,0.00,Wunderground v.1.15,2013-05-24 09:44:00,
2013-05-24 04:45:00,40.2,38.6,30.34,East,85,0.0,0.0,94,0.00,,,0.00,Wunderground v.1.15,2013-05-24 09:45:00,
2013-05-24 04:47:00,40.1,38.5,30.34,East,85,0.0,0.0,94,0.00,,,0.00,Wunderground v.1.15,2013-05-24 09:47:00,
2013-05-24 04:51:00,40.0,38.4,30.34,East,85,0.0,0.0,94,0.00,,,0.00,Wunderground v.1.15,2013-05-24 09:51:00,
2013-05-24 04:52:00,39.9,38.3,30.34,East,85,0.0,0.0,94,0.00,,,0.00,Wunderground v.1.15,2013-05-24 09:52:00,
2013-05-24 04:53:00,39.9,38.3,30.34,East,85,0.0,0.0,94,0.00,,,0.00,Wunderground v.1.15,2013-05-24 09:53:00,
2013-05-24 04:54:00,39.9,38.3,30.34,East,85,0.0,0.0,94,0.00,,,0.00,Wunderground v.1.15,2013-05-24 09:54:00,
2013-05-24 04:58:00,39.6,38.0,30.34,East,85,0.0,0.0,94,0.00,,,0.00,Wunderground v.1.15,2013-05-24 09:58:00,
2013-05-24 05:00:00,39.6,38.0,30.34,East,85,0.0,0.0,94,0.00,,,0.00,Wunderground v.1.15,2013-05-24 10:00:00,
2013-05-24 05:01:00,39.5,37.9,30.34,East,85,0.0,0.0,94,0.00,,,0.00,Wunderground v.1.15,2013-05-24 10:01:00,
2013-05-24 05:03:00,39.5,37.9,30.34,East,85,0.0,0.0,94,0.00,,,0.00,Wunderground v.1.15,2013-05-24 10:03:00,
2013-05-24 05:06:00,39.4,37.8,30.34,East,85,0.0,0.0,94,0.00,,,0.00,Wunderground v.1.15,2013-05-24 10:06:00,
2013-05-24 05:09:00,39.3,37.7,30.34,East,84,0.0,0.0,94,0.00,,,0.00,Wunderground v.1.15,2013-05-24 10:09:00,
2013-05-24 05:10:00,39.2,37.6,30.35,East,85,0.0,0.0,94,0.00,,,0.00,Wunderground v.1.15,2013-05-24 10:10:00,
2013-05-24 05:11:00,39.2,37.6,30.35,East,85,0.0,0.0,94,0.00,,,0.00,Wunderground v.1.15,2013-05-24 10:11:00,
2013-05-24 05:14:00,39.1,37.5,30.35,East,85,0.0,0.0,94,0.00,,,0.00,Wunderground v.1.15,2013-05-24 10:14:00,
2013-05-24 05:15:00,39.0,37.4,30.35,East,85,0.0,0.0,94,0.00,,,0.00,Wunderground v.1.15,2013-05-24 10:15:00,
2013-05-24 05:18:00,38.9,37.3,30.35,East,85,0.0,0.0,94,0.00,,,0.00,Wunderground v.1.15,2013-05-24 10:18:00,
2013-05-24 05:19:00,38.9,37.3,30.36,East,85,0.0,0.0,94,0.00,,,0.00,Wunderground v.1.15,2013-05-24 10:19:00,
2013-05-24 05:20:00,38.9,37.3,30.36,East,85,0.0,0.0,94,0.00,,,0.00,Wunderground v.1.15,2013-05-24 10:20:00,
2013-05-24 05:23:00,38.7,37.1,30.36,East,85,0.0,0.0,94,0.00,,,0.00,Wunderground v.1.15,2013-05-24 10:23:00,
2013-05-24 05:24:00,38.6,37.0,30.36,East,85,0.0,0.0,94,0.00,,,0.00,Wunderground v.1.15,2013-05-24 10:24:00,
2013-05-24 05:27:00,38.4,36.8,30.36,East,85,0.0,0.0,94,0.00,,,0.00,Wunderground v.1.15,2013-05-24 10:27:00,
2013-05-24 05:28:00,38.3,36.7,30.36,East,85,0.0,0.0,94,0.00,,,0.00,Wunderground v.1.15,2013-05-24 10:28:00,
2013-05-24 05:30:00,38.3,36.7,30.36,East,85,0.0,0.0,94,0.00,,,0.00,Wunderground v.1.15,2013-05-24 10:30:00,
2013-05-24 05:31:00,38.2,36.6,30.36,East,85,0.0,0.0,94,0.00,,,0.00,Wunderground v.1.15,2013-05-24 10:31:00,
2013-05-24 05:33:00,38.1,36.5,30.36,East,85,0.0,0.0,94,0.00,,,0.00,Wunderground v.1.15,2013-05-24 10:33:00,
2013-05-24 05:35:00,38.1,36.5,30.36,East,85,0.0,0.0,94,0.00,,,0.00,Wunderground v.1.15,2013-05-24 10:35:00,
2013-05-24 05:38:00,38.1,36.8,30.37,East,85,0.0,0.0,95,0.00,,,0.00,Wunderground v.1.15,2013-05-24 10:38:00,
2013-05-24 05:39:00,38.1,36.8,30.37,East,85,0.0,0.0,95,0.00,,,0.00,Wunderground v.1.15,2013-05-24 10:39:00,
2013-05-24 05:41:00,38.1,36.8,30.37,East,85,0.0,0.0,95,0.00,,,0.00,Wunderground v.1.15,2013-05-24 10:41:00,
2013-05-24 05:45:00,38.1,36.8,30.37,East,85,0.0,0.0,95,0.00,,,0.00,Wunderground v.1.15,2013-05-24 10:45:00,
2013-05-24 05:46:00,38.0,36.7,30.37,East,85,0.0,0.0,95,0.00,,,0.00,Wunderground v.1.15,2013-05-24 10:46:00,
2013-05-24 05:47:00,38.0,36.7,30.38,East,85,0.0,0.0,95,0.00,,,0.00,Wunderground v.1.15,2013-05-24 10:47:00,
2013-05-24 05:48:00,38.0,36.7,30.37,East,85,0.0,0.0,95,0.00,,,0.00,Wunderground v.1.15,2013-05-24 10:48:00,
2013-05-24 05:49:00,38.0,36.7,30.38,East,85,0.0,0.0,95,0.00,,,0.00,Wunderground v.1.15,2013-05-24 10:49:00,
2013-05-24 05:50:00,38.0,36.7,30.37,East,85,0.0,0.0,95,0.00,,,0.00,Wunderground v.1.15,2013-05-24 10:50:00,
2013-05-24 05:51:00,38.0,36.7,30.38,East,85,0.0,0.0,95,0.00,,,0.00,Wunderground v.1.15,2013-05-24 10:51:00,
2013-05-24 05:53:00,38.1,36.8,30.38,East,85,0.0,0.0,95,0.00,,,0.00,Wunderground v.1.15,2013-05-24 10:53:00,
2013-05-24 05:55:00,38.1,36.8,30.38,East,85,0.0,0.0,95,0.00,,,0.00,Wunderground v.1.15,2013-05-24 10:55:00,
2013-05-24 05:56:00,38.1,36.8,30.38,East,85,0.0,0.0,95,0.00,,,0.00,Wunderground v.1.15,2013-05-24 10:56:00,
2013-05-24 05:58:00,38.1,36.8,30.38,East,85,0.0,0.0,95,0.00,,,0.00,Wunderground v.1.15,2013-05-24 10:58:00,
2013-05-24 06:00:00,38.1,36.8,30.37,East,85,0.0,0.0,95,0.00,,,0.00,Wunderground v.1.15,2013-05-24 11:00:00,
2013-05-24 06:01:00,38.2,36.9,30.38,East,85,0.0,0.0,95,0.00,,,0.00,Wunderground v.1.15,2013-05-24 11:01:00,
2013-05-24 06:02:00,38.2,36.9,30.38,East,85,0.0,0.0,95,0.00,,,0.00,Wunderground v.1.15,2013-05-24 11:02:00,
2013-05-24 06:06:00,38.3,37.0,30.38,East,85,0.0,0.0,95,0.00,,,0.00,Wunderground v.1.15,2013-05-24 11:06:00,
2013-05-24 06:07:00,38.3,37.0,30.38,East,85,0.0,0.0,95,0.00,,,0.00,Wunderground v.1.15,2013-05-24 11:07:00,
2013-05-24 06:09:00,38.3,37.0,30.38,ENE,65,0.0,0.0,95,0.00,,,0.00,Wunderground v.1.15,2013-05-24 11:09:00,
2013-05-24 06:12:00,38.4,37.1,30.38,ENE,65,0.0,0.0,95,0.00,,,0.00,Wunderground v.1.15,2013-05-24 11:12:00,
2013-05-24 06:14:00,38.6,37.3,30.38,ENE,65,0.0,1.0,95,0.00,,,0.00,Wunderground v.1.15,2013-05-24 11:14:00,
2013-05-24 06:16:00,38.7,37.4,30.38,ENE,77,0.0,1.0,95,0.00,,,0.00,Wunderground v.1.15,2013-05-24 11:16:00,
2013-05-24 06:17:00,38.8,37.5,30.38,ENE,77,0.0,1.0,95,0.00,,,0.00,Wunderground v.1.15,2013-05-24 11:17:00,
2013-05-24 06:18:00,39.0,37.7,30.38,ENE,77,0.0,1.0,95,0.00,,,0.00,Wunderground v.1.15,2013-05-24 11:18:00,
2013-05-24 06:22:00,40.1,38.8,30.38,ENE,76,0.0,0.0,95,0.00,,,0.00,Wunderground v.1.15,2013-05-24 11:22:00,
2013-05-24 06:24:00,40.6,39.0,30.38,East,79,0.0,0.0,94,0.00,,,0.00,Wunderground v.1.15,2013-05-24 11:24:00,
2013-05-24 06:26:00,41.0,39.4,30.39,East,79,0.0,0.0,94,0.00,,,0.00,Wunderground v.1.15,2013-05-24 11:26:00,
2013-05-24 06:28:00,41.6,39.7,30.39,East,84,0.0,0.0,93,0.00,,,0.00,Wunderground v.1.15,2013-05-24 11:28:00,
2013-05-24 06:31:00,42.1,40.2,30.39,East,83,0.0,0.0,93,0.00,,,0.00,Wunderground v.1.15,2013-05-24 11:31:00,
2013-05-24 06:32:00,42.6,40.4,30.39,East,85,0.0,0.0,92,0.00,,,0.00,Wunderground v.1.15,2013-05-24 11:32:00,
2013-05-24 06:36:00,43.4,40.9,30.39,North,6,0.0,0.0,91,0.00,,,0.00,Wunderground v.1.15,2013-05-24 11:36:00,
2013-05-24 06:38:00,43.9,40.9,30.39,NNE,23,0.0,0.0,89,0.00,,,0.00,Wunderground v.1.15,2013-05-24 11:38:00,
2013-05-24 06:41:00,44.0,40.4,30.39,NNE,26,0.0,0.0,87,0.00,,,0.00,Wunderground v.1.15,2013-05-24 11:41:00,
2013-05-24 06:42:00,44.1,40.5,30.39,NNE,26,0.0,0.0,87,0.00,,,0.00,Wunderground v.1.15,2013-05-24 11:42:00,
2013-05-24 06:43:00,44.2,40.6,30.39,NW,322,0.0,0.0,87,0.00,,,0.00,Wunderground v.1.15,2013-05-24 11:43:00,
2013-05-24 06:49:00,44.2,39.7,30.39,NE,51,0.0,0.0,84,0.00,,,0.00,Wunderground v.1.15,2013-05-24 11:49:00,
2013-05-24 06:50:00,44.2,39.4,30.39,NNE,15,0.0,0.0,83,0.00,,,0.00,Wunderground v.1.15,2013-05-24 11:50:00,
2013-05-24 06:51:00,44.2,39.7,30.40,North,1,0.0,0.0,84,0.00,,,0.00,Wunderground v.1.15,2013-05-24 11:51:00,
2013-05-24 06:54:00,44.3,39.5,30.40,East,84,0.0,0.0,83,0.00,,,0.00,Wunderground v.1.15,2013-05-24 11:54:00,
2013-05-24 06:55:00,44.3,39.5,30.40,North,355,0.0,0.0,83,0.00,,,0.00,Wunderground v.1.15,2013-05-24 11:55:00,
2013-05-24 06:56:00,44.4,39.2,30.40,East,84,0.0,1.0,82,0.00,,,0.00,Wunderground v.1.15,2013-05-24 11:56:00,
2013-05-24 07:00:00,44.4,38.9,30.40,ENE,77,0.0,0.0,81,0.00,,,0.00,Wunderground v.1.15,2013-05-24 12:00:00,
2013-05-24 07:03:00,44.4,39.2,30.40,SE,130,0.0,0.0,82,0.00,,,0.00,Wunderground v.1.15,2013-05-24 12:03:00,
2013-05-24 07:04:00,44.5,39.3,30.40,ESE,114,0.0,0.0,82,0.00,,,0.00,Wunderground v.1.15,2013-05-24 12:04:00,
2013-05-24 07:06:00,44.7,39.5,30.40,NW,320,0.0,0.0,82,0.00,,,0.00,Wunderground v.1.15,2013-05-24 12:06:00,
2013-05-24 07:09:00,45.1,39.6,30.41,SE,126,0.0,0.0,81,0.00,,,0.00,Wunderground v.1.15,2013-05-24 12:09:00,
2013-05-24 07:11:00,45.3,39.5,30.41,ESE,113,0.0,2.0,80,0.00,,,0.00,Wunderground v.1.15,2013-05-24 12:11:00,
2013-05-24 07:13:00,45.5,39.7,30.41,NNE,15,0.0,2.0,80,0.00,,,0.01,Wunderground v.1.15,2013-05-24 12:13:00,
2013-05-24 07:16:00,45.5,39.4,30.41,East,92,0.0,2.0,79,0.00,,,0.01,Wunderground v.1.15,2013-05-24 12:16:00,
2013-05-24 07:17:00,45.5,39.7,30.41,ENE,73,0.0,2.0,80,0.00,,,0.01,Wunderground v.1.15,2013-05-24 12:17:00,
2013-05-24 07:19:00,45.6,39.8,30.41,NNE,20,0.0,2.0,80,0.00,,,0.01,Wunderground v.1.15,2013-05-24 12:19:00,
2013-05-24 07:20:00,45.6,39.8,30.41,NE,49,0.0,0.0,80,0.00,,,0.01,Wunderground v.1.15,2013-05-24 12:20:00,
2013-05-24 07:21:00,45.6,39.8,30.41,West,274,0.0,0.0,80,0.00,,,0.01,Wunderground v.1.15,2013-05-24 12:21:00,
2013-05-24 07:23:00,45.7,39.9,30.41,ENE,64,0.0,0.0,80,0.00,,,0.01,Wunderground v.1.15,2013-05-24 12:23:00,
2013-05-24 07:24:00,45.8,40.0,30.41,NE,46,0.0,0.0,80,0.00,,,0.01,Wunderground v.1.15,2013-05-24 12:24:00,
2013-05-24 07:26:00,45.9,40.1,30.41,East,91,0.0,0.0,80,0.00,,,0.01,Wunderground v.1.15,2013-05-24 12:26:00,
2013-05-24 07:27:00,45.9,40.1,30.41,ESE,118,0.0,0.0,80,0.00,,,0.01,Wunderground v.1.15,2013-05-24 12:27:00,
2013-05-24 07:28:00,45.9,40.1,30.41,WNW,297,0.0,0.0,80,0.00,,,0.01,Wunderground v.1.15,2013-05-24 12:28:00,
2013-05-24 07:29:00,45.9,40.1,30.41,NNW,330,0.0,0.0,80,0.00,,,0.01,Wunderground v.1.15,2013-05-24 12:29:00,
2013-05-24 07:32:00,45.8,39.3,30.41,NE,36,0.0,1.0,78,0.00,,,0.01,Wunderground v.1.15,2013-05-24 12:32:00,
2013-05-24 07:33:00,45.8,39.7,30.41,East,84,0.0,1.0,79,0.00,,,0.01,Wunderground v.1.15,2013-05-24 12:33:00,
2013-05-24 07:34:00,45.8,40.0,30.41,NE,54,0.0,1.0,80,0.00,,,0.01,Wunderground v.1.15,2013-05-24 12:34:00,
2013-05-24 07:35:00,45.9,39.8,30.41,ESE,110,0.0,1.0,79,0.00,,,0.01,Wunderground v.1.15,2013-05-24 12:35:00,
2013-05-24 07:39:00,46.2,40.4,30.41,ENE,72,0.0,1.0,80,0.00,,,0.01,Wunderground v.1.15,2013-05-24 12:39:00,
2013-05-24 07:40:00,46.4,40.6,30.41,ENE,58,0.0,1.0,80,0.00,,,0.01,Wunderground v.1.15,2013-05-24 12:40:00,
2013-05-24 07:41:00,46.4,39.6,30.41,East,84,0.0,2.0,77,0.00,,,0.01,Wunderground v.1.15,2013-05-24 12:41:00,
2013-05-24 07:42:00,46.4,39.6,30.41,East,92,0.0,2.0,77,0.00,,,0.01,Wunderground v.1.15,2013-05-24 12:42:00,
2013-05-24 07:43:00,46.3,39.5,30.41,East,79,0.0,5.0,77,0.00,,,0.01,Wunderground v.1.15,2013-05-24 12:43:00,
2013-05-24 07:46:00,46.1,39.3,30.41,ENE,72,1.0,5.0,77,0.00,,,0.01,Wunderground v.1.15,2013-05-24 12:46:00,
2013-05-24 07:47:00,46.1,39.0,30.41,East,91,2.0,5.0,76,0.00,,,0.01,Wunderground v.1.15,2013-05-24 12:47:00,
2013-05-24 07:48:00,46.0,38.9,30.41,East,79,2.0,5.0,76,0.00,,,0.01,Wunderground v.1.15,2013-05-24 12:48:00,
2013-05-24 07:49:00,46.1,39.3,30.41,ENE,75,2.0,5.0,77,0.00,,,0.01,Wunderground v.1.15,2013-05-24 12:49:00,
2013-05-24 07:52:00,46.3,39.8,30.41,East,98,2.0,2.0,78,0.00,,,0.01,Wunderground v.1.15,2013-05-24 12:52:00,
2013-05-24 07:53:00,46.5,39.7,30.41,ESE,104,2.0,2.0,77,0.00,,,0.01,Wunderground v.1.15,2013-05-24 12:53:00,
2013-05-24 07:54:00,46.7,40.2,30.41,NE,51,2.0,2.0,78,0.00,,,0.01,Wunderground v.1.15,2013-05-24 12:54:00,
2013-05-24 07:57:00,47.0,39.5,30.42,ENE,77,1.0,5.0,75,0.00,,,0.01,Wunderground v.1.15,2013-05-24 12:57:00,
2013-05-24 07:59:00,46.9,38.3,30.42,East,84,1.0,7.0,72,0.00,,,0.01,Wunderground v.1.15,2013-05-24 12:59:00,
2013-05-24 08:03:00,46.8,38.6,30.42,East,86,2.0,3.0,73,0.00,,,0.01,Wunderground v.1.15,2013-05-24 13:03:00,
2013-05-24 08:05:00,46.9,38.3,30.42,NNE,30,2.0,7.0,72,0.00,,,0.01,Wunderground v.1.15,2013-05-24 13:05:00,
2013-05-24 08:08:00,46.9,38.0,30.42,East,82,3.0,7.0,71,0.00,,,0.01,Wunderground v.1.15,2013-05-24 13:08:00,
2013-05-24 08:09:00,46.9,38.3,30.42,ENE,64,3.0,7.0,72,0.00,,,0.01,Wunderground v.1.15,2013-05-24 13:09:00,
2013-05-24 08:11:00,47.0,38.4,30.42,ENE,77,2.0,3.0,72,0.00,,,0.01,Wunderground v.1.15,2013-05-24 13:11:00,
2013-05-24 08:14:00,47.1,38.5,30.42,NE,49,3.0,3.0,72,0.00,,,0.01,Wunderground v.1.15,2013-05-24 13:14:00,
2013-05-24 08:16:00,47.3,39.1,30.42,ENE,66,2.0,3.0,73,0.00,,,0.01,Wunderground v.1.15,2013-05-24 13:16:00,
2013-05-24 08:17:00,47.4,38.8,30.42,ENE,72,2.0,3.0,72,0.00,,,0.01,Wunderground v.1.15,2013-05-24 13:17:00,
2013-05-24 08:18:00,47.5,39.3,30.42,ESE,120,2.0,3.0,73,0.00,,,0.01,Wunderground v.1.15,2013-05-24 13:18:00,
2013-05-24 08:19:00,47.7,40.2,30.42,ENE,68,2.0,3.0,75,0.00,,,0.01,Wunderground v.1.15,2013-05-24 13:19:00,
2013-05-24 08:23:00,48.5,39.5,30.42,ENE,68,1.0,2.0,71,0.00,,,0.01,Wunderground v.1.15,2013-05-24 13:23:00,
2013-05-24 08:25:00,48.5,38.4,30.42,NE,56,1.0,3.0,68,0.00,,,0.01,Wunderground v.1.15,2013-05-24 13:25:00,
2013-05-24 08:26:00,48.4,38.3,30.42,ESE,108,1.0,3.0,68,0.00,,,0.01,Wunderground v.1.15,2013-05-24 13:26:00,
2013-05-24 08:27:00,48.2,38.1,30.42,East,81,1.0,3.0,68,0.00,,,0.01,Wunderground v.1.15,2013-05-24 13:27:00,
2013-05-24 08:31:00,48.2,39.2,30.42,NNE,18,2.0,3.0,71,0.00,,,0.01,Wunderground v.1.15,2013-05-24 13:31:00,
2013-05-24 08:32:00,48.3,39.7,30.42,West,280,2.0,3.0,72,0.00,,,0.01,Wunderground v.1.15,2013-05-24 13:32:00,
2013-05-24 08:33:00,48.4,39.4,30.42,ENE,68,2.0,4.0,71,0.00,,,0.01,Wunderground v.1.15,2013-05-24 13:33:00,
2013-05-24 08:35:00,48.3,38.2,30.42,NE,39,3.0,6.0,68,0.00,,,0.01,Wunderground v.1.15,2013-05-24 13:35:00,
2013-05-24 08:38:00,48.5,39.2,30.42,East,89,2.0,6.0,70,0.00,,,0.01,Wunderground v.1.15,2013-05-24 13:38:00,
2013-05-24 08:40:00,48.7,39.0,30.42,East,81,2.0,2.0,69,0.00,,,0.01,Wunderground v.1.15,2013-05-24 13:40:00,
2013-05-24 08:41:00,48.8,39.4,30.42,NNW,333,2.0,2.0,70,0.00,,,0.01,Wunderground v.1.15,2013-05-24 13:41:00,
2013-05-24 08:43:00,49.0,38.9,30.42,ENE,75,2.0,6.0,68,0.00,,,0.01,Wunderground v.1.15,2013-05-24 13:43:00,
2013-05-24 08:46:00,48.9,39.2,30.42,NE,52,2.0,6.0,69,0.00,,,0.01,Wunderground v.1.15,2013-05-24 13:46:00,
2013-05-24 08:47:00,49.0,39.3,30.42,ESE,107,2.0,6.0,69,0.00,,,0.01,Wunderground v.1.15,2013-05-24 13:47:00,
2013-05-24 08:49:00,49.2,39.5,30.42,ENE,78,1.0,6.0,69,0.00,,,0.01,Wunderground v.1.15,2013-05-24 13:49:00,
2013-05-24 08:52:00,49.2,38.3,30.42,East,88,2.0,8.0,66,0.00,,,0.01,Wunderground v.1.15,2013-05-24 13:52:00,
2013-05-24 08:53:00,49.2,38.3,30.42,NE,42,3.0,8.0,66,0.00,,,0.01,Wunderground v.1.15,2013-05-24 13:53:00,
2013-05-24 08:55:00,49.2,39.1,30.42,NNE,20,3.0,8.0,68,0.00,,,0.01,Wunderground v.1.15,2013-05-24 13:55:00,
2013-05-24 08:58:00,49.1,38.2,30.42,East,96,3.0,8.0,66,0.00,,,0.01,Wunderground v.1.15,2013-05-24 13:58:00,
2013-05-24 08:59:00,49.2,39.1,30.42,NNE,32,3.0,8.0,68,0.00,,,0.01,Wunderground v.1.15,2013-05-24 13:59:00,
2013-05-24 09:00:00,49.3,39.6,30.42,NNE,30,3.0,3.0,69,0.00,,,0.01,Wunderground v.1.15,2013-05-24 14:00:00,
2013-05-24 09:02:00,49.5,39.7,30.42,East,80,2.0,3.0,69,0.00,,,0.01,Wunderground v.1.15,2013-05-24 14:02:00,
2013-05-24 09:04:00,49.6,39.1,30.43,NNE,22,2.0,6.0,67,0.00,,,0.01,Wunderground v.1.15,2013-05-24 14:04:00,
2013-05-24 09:06:00,49.7,39.6,30.42,ENE,73,2.0,6.0,68,0.00,,,0.01,Wunderground v.1.15,2013-05-24 14:06:00,
2013-05-24 09:08:00,49.9,39.8,30.42,East,82,2.0,6.0,68,0.00,,,0.01,Wunderground v.1.15,2013-05-24 14:08:00,
2013-05-24 09:09:00,49.9,39.8,30.43,NW,320,2.0,6.0,68,0.00,,,0.01,Wunderground v.1.15,2013-05-24 14:09:00,
2013-05-24 09:11:00,50.4,40.6,30.42,ENE,58,2.0,2.0,69,0.00,,,0.01,Wunderground v.1.15,2013-05-24 14:11:00,
2013-05-24 09:13:00,50.6,38.9,30.43,ENE,74,2.0,4.0,64,0.00,,,0.01,Wunderground v.1.15,2013-05-24 14:13:00,
2013-05-24 09:14:00,50.6,39.7,30.42,East,79,2.0,4.0,66,0.00,,,0.01,Wunderground v.1.15,2013-05-24 14:14:00,
2013-05-24 09:16:00,50.7,39.0,30.42,ENE,61,2.0,4.0,64,0.00,,,0.01,Wunderground v.1.15,2013-05-24 14:16:00,
2013-05-24 09:18:00,50.7,39.4,30.42,ESE,102,1.0,4.0,65,0.00,,,0.01,Wunderground v.1.15,2013-05-24 14:18:00,
2013-05-24 09:19:00,50.8,39.8,30.42,East,86,2.0,4.0,66,0.00,,,0.01,Wunderground v.1.15,2013-05-24 14:19:00,
2013-05-24 09:21:00,50.9,39.1,30.42,NE,35,2.0,2.0,64,0.00,,,0.01,Wunderground v.1.15,2013-05-24 14:21:00,
2013-05-24 09:23:00,50.7,39.0,30.42,NNE,30,2.0,2.0,64,0.00,,,0.01,Wunderground v.1.15,2013-05-24 14:23:00,
2013-05-24 09:25:00,50.8,39.5,30.42,NNE,33,2.0,2.0,65,0.00,,,0.01,Wunderground v.1.15,2013-05-24 14:25:00,
2013-05-24 09:26:00,50.9,39.1,30.43,WNW,300,2.0,2.0,64,0.00,,,0.01,Wunderground v.1.15,2013-05-24 14:26:00,
2013-05-24 09:29:00,51.2,38.6,30.43,NE,49,2.0,7.0,62,0.00,,,0.01,Wunderground v.1.15,2013-05-24 14:29:00,
2013-05-24 09:32:00,51.4,39.2,30.43,ENE,58,1.0,4.0,63,0.00,,,0.01,Wunderground v.1.15,2013-05-24 14:32:00,
2013-05-24 09:34:00,51.5,39.3,30.43,ENE,70,1.0,4.0,63,0.00,,,0.01,Wunderground v.1.15,2013-05-24 14:34:00,
2013-05-24 09:37:00,51.8,40.0,30.43,ESE,123,1.0,4.0,64,0.00,,,0.01,Wunderground v.1.15,2013-05-24 14:37:00,
2013-05-24 09:38:00,51.9,39.7,30.43,East,85,1.0,4.0,63,0.00,,,0.01,Wunderground v.1.15,2013-05-24 14:38:00,
2013-05-24 09:39:00,51.9,39.3,30.43,SSE,148,1.0,4.0,62,0.00,,,0.01,Wunderground v.1.15,2013-05-24 14:39:00,
2013-05-24 09:43:00,52.0,39.8,30.43,ESE,123,1.0,1.0,63,0.00,,,0.01,Wunderground v.1.15,2013-05-24 14:43:00,
2013-05-24 09:44:00,52.0,39.8,30.43,ESE,115,1.0,3.0,63,0.00,,,0.01,Wunderground v.1.15,2013-05-24 14:44:00,
2013-05-24 09:45:00,52.0,39.8,30.44,NNE,15,1.0,3.0,63,0.00,,,0.01,Wunderground v.1.15,2013-05-24 14:45:00,
2013-05-24 09:46:00,52.2,41.2,30.44,North,349,1.0,3.0,66,0.00,,,0.01,Wunderground v.1.15,2013-05-24 14:46:00,
2013-05-24 09:49:00,52.6,40.8,30.44,ENE,68,1.0,3.0,64,0.00,,,0.01,Wunderground v.1.15,2013-05-24 14:49:00,
2013-05-24 09:50:00,52.6,39.5,30.44,ENE,65,1.0,2.0,61,0.00,,,0.01,Wunderground v.1.15,2013-05-24 14:50:00,
2013-05-24 09:52:00,52.7,39.6,30.43,SSW,212,1.0,2.0,61,0.00,,,0.01,Wunderground v.1.15,2013-05-24 14:52:00,
2013-05-24 09:53:00,52.7,40.0,30.43,SSE,153,0.0,2.0,62,0.00,,,0.01,Wunderground v.1.15,2013-05-24 14:53:00,
2013-05-24 09:54:00,52.9,41.0,30.43,SE,124,0.0,2.0,64,0.00,,,0.01,Wunderground v.1.15,2013-05-24 14:54:00,
2013-05-24 09:57:00,52.9,39.4,30.43,SE,131,1.0,2.0,60,0.00,,,0.01,Wunderground v.1.15,2013-05-24 14:57:00,
2013-05-24 09:58:00,52.9,40.2,30.43,SE,142,1.0,5.0,62,0.00,,,0.01,Wunderground v.1.15,2013-05-24 14:58:00,
2013-05-24 09:59:00,53.0,41.5,30.43,East,94,1.0,5.0,65,0.00,,,0.01,Wunderground v.1.15,2013-05-24 14:59:00,
2013-05-24 10:03:00,52.9,39.4,30.43,East,101,2.0,7.0,60,0.00,,,0.01,Wunderground v.1.15,2013-05-24 15:03:00,
2013-05-24 10:04:00,52.8,38.9,30.43,East,91,2.0,7.0,59,0.00,,,0.01,Wunderground v.1.15,2013-05-24 15:04:00,
2013-05-24 10:08:00,53.0,40.7,30.43,NNW,331,2.0,7.0,63,0.00,,,0.01,Wunderground v.1.15,2013-05-24 15:08:00,
2013-05-24 10:09:00,53.2,40.9,30.43,NNW,338,2.0,7.0,63,0.00,,,0.01,Wunderground v.1.15,2013-05-24 15:09:00,
2013-05-24 10:13:00,53.6,41.7,30.43,East,79,1.0,2.0,64,0.00,,,0.01,Wunderground v.1.15,2013-05-24 15:13:00,
2013-05-24 10:14:00,53.7,41.0,30.43,ESE,105,1.0,2.0,62,0.00,,,0.01,Wunderground v.1.15,2013-05-24 15:14:00,
2013-05-24 10:15:00,53.8,41.5,30.43,North,356,1.0,2.0,63,0.00,,,0.01,Wunderground v.1.15,2013-05-24 15:15:00,
2013-05-24 10:16:00,53.9,40.8,30.42,ESE,104,1.0,3.0,61,0.00,,,0.01,Wunderground v.1.15,2013-05-24 15:16:00,
2013-05-24 10:18:00,53.9,42.0,30.42,NE,43,1.0,3.0,64,0.00,,,0.01,Wunderground v.1.15,2013-05-24 15:18:00,
2013-05-24 10:21:00,54.2,41.5,30.42,North,349,1.0,1.0,62,0.00,,,0.01,Wunderground v.1.15,2013-05-24 15:21:00,
2013-05-24 10:24:00,54.7,43.6,30.42,East,96,1.0,6.0,66,0.00,,,0.01,Wunderground v.1.15,2013-05-24 15:24:00,
2013-05-24 10:25:00,54.7,43.6,30.42,East,81,1.0,6.0,66,0.00,,,0.01,Wunderground v.1.15,2013-05-24 15:25:00,
2013-05-24 10:26:00,54.6,40.6,30.42,WSW,238,1.0,6.0,59,0.00,,,0.01,Wunderground v.1.15,2013-05-24 15:26:00,
2013-05-24 10:29:00,54.3,40.7,30.42,NE,44,1.0,6.0,60,0.00,,,0.01,Wunderground v.1.15,2013-05-24 15:29:00,
2013-05-24 10:30:00,54.2,39.7,30.41,NE,51,1.0,1.0,58,0.00,,,0.01,Wunderground v.1.15,2013-05-24 15:30:00,
2013-05-24 10:31:00,54.1,40.1,30.41,East,92,2.0,7.0,59,0.00,,,0.01,Wunderground v.1.15,2013-05-24 15:31:00,
2013-05-24 10:34:00,54.2,41.0,30.41,ESE,115,3.0,7.0,61,0.00,,,0.01,Wunderground v.1.15,2013-05-24 15:34:00,
2013-05-24 10:35:00,54.3,41.1,30.41,ENE,74,3.0,7.0,61,0.00,,,0.01,Wunderground v.1.15,2013-05-24 15:35:00,
2013-05-24 10:36:00,54.4,41.6,30.41,East,86,2.0,7.0,62,0.00,,,0.01,Wunderground v.1.15,2013-05-24 15:36:00,
2013-05-24 10:40:00,54.5,40.5,30.41,North,350,2.0,2.0,59,0.00,,,0.01,Wunderground v.1.15,2013-05-24 15:40:00,
2013-05-24 10:41:00,54.6,41.4,30.41,SE,127,2.0,3.0,61,0.00,,,0.01,Wunderground v.1.15,2013-05-24 15:41:00,
2013-05-24 10:42:00,54.7,42.3,30.41,ENE,60,1.0,3.0,63,0.00,,,0.01,Wunderground v.1.15,2013-05-24 15:42:00,
2013-05-24 10:44:00,54.6,41.0,30.41,East,84,1.0,3.0,60,0.00,,,0.01,Wunderground v.1.15,2013-05-24 15:44:00,
2013-05-24 10:47:00,54.9,40.8,30.41,North,8,1.0,5.0,59,0.00,,,0.01,Wunderground v.1.15,2013-05-24 15:47:00,
2013-05-24 10:49:00,55.1,42.7,30.41,North,359,1.0,5.0,63,0.00,,,0.01,Wunderground v.1.15,2013-05-24 15:49:00,
2013-05-24 10:52:00,55.3,41.2,30.41,East,100,1.0,3.0,59,0.00,,,0.01,Wunderground v.1.15,2013-05-24 15:52:00,
2013-05-24 10:53:00,55.3,40.8,30.41,East,87,1.0,3.0,58,0.00,,,0.01,Wunderground v.1.15,2013-05-24 15:53:00,
2013-05-24 10:54:00,55.4,42.2,30.41,ENE,66,1.0,6.0,61,0.00,,,0.01,Wunderground v.1.15,2013-05-24 15:54:00,
2013-05-24 10:57:00,55.6,42.4,30.41,NNE,26,1.0,6.0,61,0.00,,,0.01,Wunderground v.1.15,2013-05-24 15:57:00,
2013-05-24 10:58:00,55.7,42.5,30.41,North,360,1.0,6.0,61,0.00,,,0.01,Wunderground v.1.15,2013-05-24 15:58:00,
2013-05-24 11:02:00,55.8,41.7,30.41,NE,40,2.0,4.0,59,0.00,,,0.01,Wunderground v.1.15,2013-05-24 16:02:00,
2013-05-24 11:03:00,55.8,41.7,30.41,NE,46,2.0,4.0,59,0.00,,,0.01,Wunderground v.1.15,2013-05-24 16:03:00,
2013-05-24 11:04:00,55.7,41.6,30.41,NW,314,2.0,5.0,59,0.00,,,0.01,Wunderground v.1.15,2013-05-24 16:04:00,
2013-05-24 11:05:00,55.7,41.1,30.41,NNE,16,2.0,5.0,58,0.00,,,0.01,Wunderground v.1.15,2013-05-24 16:05:00,
2013-05-24 11:07:00,55.8,43.0,30.41,ESE,105,2.0,5.0,62,0.00,,,0.01,Wunderground v.1.15,2013-05-24 16:07:00,
2013-05-24 11:09:00,55.8,42.5,30.41,WNW,293,2.0,5.0,61,0.00,,,0.01,Wunderground v.1.15,2013-05-24 16:09:00,
2013-05-24 11:10:00,55.9,43.1,30.41,ENE,68,2.0,5.0,62,0.00,,,0.01,Wunderground v.1.15,2013-05-24 16:10:00,
2013-05-24 11:11:00,56.1,42.0,30.40,East,89,2.0,5.0,59,0.00,,,0.01,Wunderground v.1.15,2013-05-24 16:11:00,
2013-05-24 11:13:00,56.1,42.0,30.41,ENE,64,2.0,5.0,59,0.00,,,0.01,Wunderground v.1.15,2013-05-24 16:13:00,
2013-05-24 11:14:00,56.3,43.4,30.40,East,101,2.0,5.0,62,0.00,,,0.01,Wunderground v.1.15,2013-05-24 16:14:00,
2013-05-24 11:15:00,56.4,43.5,30.41,ENE,57,2.0,6.0,62,0.00,,,0.01,Wunderground v.1.15,2013-05-24 16:15:00,
2013-05-24 11:19:00,56.5,43.2,30.41,SSE,148,2.0,4.0,61,0.00,,,0.01,Wunderground v.1.15,2013-05-24 16:19:00,
2013-05-24 11:20:00,56.5,42.8,30.41,NW,308,2.0,4.0,60,0.00,,,0.01,Wunderground v.1.15,2013-05-24 16:20:00,
2013-05-24 11:22:00,56.5,42.8,30.41,NE,54,2.0,4.0,60,0.00,,,0.01,Wunderground v.1.15,2013-05-24 16:22:00,
2013-05-24 11:26:00,56.7,44.2,30.41,ESE,120,3.0,4.0,63,0.00,,,0.01,Wunderground v.1.15,2013-05-24 16:26:00,
2013-05-24 11:27:00,56.9,44.0,30.41,West,274,2.0,4.0,62,0.00,,,0.01,Wunderground v.1.15,2013-05-24 16:27:00,
2013-05-24 11:28:00,57.0,42.8,30.41,WSW,256,2.0,4.0,59,0.00,,,0.01,Wunderground v.1.15,2013-05-24 16:28:00,
2013-05-24 11:29:00,57.1,42.9,30.41,East,89,2.0,4.0,59,0.00,,,0.01,Wunderground v.1.15,2013-05-24 16:29:00,
2013-05-24 11:33:00,57.0,42.4,30.41,NE,38,2.0,4.0,58,0.00,,,0.01,Wunderground v.1.15,2013-05-24 16:33:00,
2013-05-24 11:34:00,57.1,42.5,30.41,NE,46,3.0,4.0,58,0.00,,,0.01,Wunderground v.1.15,2013-05-24 16:34:00,
2013-05-24 11:36:00,57.2,42.5,30.41,NNW,346,3.0,6.0,58,0.00,,,0.01,Wunderground v.1.15,2013-05-24 16:36:00,
2013-05-24 11:39:00,57.7,43.0,30.41,NE,56,3.0,6.0,58,0.00,,,0.01,Wunderground v.1.15,2013-05-24 16:39:00,
2013-05-24 11:40:00,57.7,42.6,30.41,ENE,63,3.0,3.0,57,0.00,,,0.01,Wunderground v.1.15,2013-05-24 16:40:00,
2013-05-24 11:41:00,57.6,42.5,30.41,East,79,2.0,5.0,57,0.00,,,0.01,Wunderground v.1.15,2013-05-24 16:41:00,
2013-05-24 11:45:00,57.5,41.4,30.41,WNW,298,2.0,5.0,55,0.00,,,0.01,Wunderground v.1.15,2013-05-24 16:45:00,
2013-05-24 11:46:00,57.4,42.7,30.41,ENE,58,2.0,5.0,58,0.00,,,0.01,Wunderground v.1.15,2013-05-24 16:46:00,
2013-05-24 11:47:00,57.4,43.6,30.41,NNW,338,2.0,5.0,60,0.00,,,0.01,Wunderground v.1.15,2013-05-24 16:47:00,
2013-05-24 11:50:00,57.7,45.2,30.41,North,360,2.0,2.0,63,0.00,,,0.01,Wunderground v.1.15,2013-05-24 16:50:00,
2013-05-24 11:51:00,57.9,46.6,30.40,SE,141,2.0,2.0,66,0.00,,,0.01,Wunderground v.1.15,2013-05-24 16:51:00,
2013-05-24 11:54:00,58.4,43.7,30.41,ENE,74,1.0,2.0,58,0.00,,,0.01,Wunderground v.1.15,2013-05-24 16:54:00,
2013-05-24 11:56:00,58.1,42.5,30.40,ENE,58,2.0,4.0,56,0.00,,,0.01,Wunderground v.1.15,2013-05-24 16:56:00,
2013-05-24 11:57:00,58.0,43.3,30.40,ENE,69,2.0,8.0,58,0.00,,,0.01,Wunderground v.1.15,2013-05-24 16:57:00,
2013-05-24 11:58:00,57.9,42.8,30.40,NNE,24,2.0,8.0,57,0.00,,,0.01,Wunderground v.1.15,2013-05-24 16:58:00,
2013-05-24 12:03:00,57.8,44.0,30.40,East,83,3.0,3.0,60,0.00,,,0.01,Wunderground v.1.15,2013-05-24 17:03:00,
2013-05-24 12:04:00,58.0,45.5,30.40,NNE,20,3.0,3.0,63,0.00,,,0.01,Wunderground v.1.15,2013-05-24 17:04:00,
2013-05-24 12:07:00,58.6,44.3,30.40,SE,128,2.0,3.0,59,0.00,,,0.01,Wunderground v.1.15,2013-05-24 17:07:00,
2013-05-24 12:09:00,58.6,42.9,30.40,NE,36,2.0,7.0,56,0.00,,,0.01,Wunderground v.1.15,2013-05-24 17:09:00,
2013-05-24 12:11:00,58.4,44.1,30.40,SE,130,2.0,2.0,59,0.00,,,0.01,Wunderground v.1.15,2013-05-24 17:11:00,
2013-05-24 12:13:00,58.5,43.3,30.40,NE,37,2.0,2.0,57,0.00,,,0.01,Wunderground v.1.15,2013-05-24 17:13:00,
2013-05-24 12:14:00,58.6,44.3,30.40,ENE,61,2.0,2.0,59,0.00,,,0.01,Wunderground v.1.15,2013-05-24 17:14:00,
2013-05-24 12:17:00,58.9,43.2,30.40,ENE,71,2.0,6.0,56,0.00,,,0.01,Wunderground v.1.15,2013-05-24 17:17:00,
2013-05-24 12:18:00,58.9,42.8,30.39,East,94,2.0,6.0,55,0.00,,,0.01,Wunderground v.1.15,2013-05-24 17:18:00,
2013-05-24 12:20:00,59.0,42.8,30.40,ENE,78,2.0,2.0,55,0.00,,,0.01,Wunderground v.1.15,2013-05-24 17:20:00,
2013-05-24 12:23:00,59.1,43.4,30.40,ENE,65,2.0,8.0,56,0.00,,,0.01,Wunderground v.1.15,2013-05-24 17:23:00,
2013-05-24 12:24:00,59.1,43.4,30.40,WNW,285,2.0,8.0,56,0.00,,,0.01,Wunderground v.1.15,2013-05-24 17:24:00,
2013-05-24 12:26:00,59.4,45.5,30.39,NW,323,2.0,8.0,60,0.00,,,0.01,Wunderground v.1.15,2013-05-24 17:26:00,
2013-05-24 12:29:00,59.7,44.4,30.39,WNW,287,2.0,8.0,57,0.00,,,0.01,Wunderground v.1.15,2013-05-24 17:29:00,
2013-05-24 12:31:00,59.8,44.5,30.39,North,354,2.0,2.0,57,0.00,,,0.01,Wunderground v.1.15,2013-05-24 17:31:00,
2013-05-24 12:32:00,59.9,45.1,30.39,SSE,148,2.0,2.0,58,0.00,,,0.01,Wunderground v.1.15,2013-05-24 17:32:00,
2013-05-24 12:34:00,59.9,44.6,30.39,SE,127,2.0,2.0,57,0.00,,,0.01,Wunderground v.1.15,2013-05-24 17:34:00,
2013-05-24 12:35:00,60.0,43.3,30.39,ENE,58,2.0,6.0,54,0.00,,,0.01,Wunderground v.1.15,2013-05-24 17:35:00,
2013-05-24 12:36:00,60.1,44.8,30.39,WSW,250,2.0,6.0,57,0.00,,,0.01,Wunderground v.1.15,2013-05-24 17:36:00,
2013-05-24 12:39:00,60.2,42.5,30.39,ENE,61,2.0,12.0,52,0.00,,,0.01,Wunderground v.1.15,2013-05-24 17:39:00,
2013-05-24 12:41:00,59.9,41.2,30.39,East,101,3.0,9.0,50,0.00,,,0.01,Wunderground v.1.15,2013-05-24 17:41:00,
2013-05-24 12:44:00,59.6,41.9,30.39,ESE,104,3.0,9.0,52,0.00,,,0.01,Wunderground v.1.15,2013-05-24 17:44:00,
2013-05-24 12:49:00,60.0,44.7,30.39,SE,134,3.0,9.0,57,0.00,,,0.01,Wunderground v.1.15,2013-05-24 17:49:00,
2013-05-24 12:50:00,60.1,42.4,30.39,NW,322,2.0,3.0,52,0.00,,,0.01,Wunderground v.1.15,2013-05-24 17:50:00,
2013-05-24 12:51:00,60.2,43.5,30.39,ENE,63,2.0,3.0,54,0.00,,,0.01,Wunderground v.1.15,2013-05-24 17:51:00,
2013-05-24 12:53:00,60.5,44.2,30.39,East,101,1.0,8.0,55,0.00,,,0.01,Wunderground v.1.15,2013-05-24 17:53:00,
2013-05-24 12:57:00,60.4,42.7,30.39,NNW,328,2.0,8.0,52,0.00,,,0.01,Wunderground v.1.15,2013-05-24 17:57:00,
2013-05-24 12:58:00,60.3,41.6,30.39,West,280,2.0,8.0,50,0.00,,,0.01,Wunderground v.1.15,2013-05-24 17:58:00,
2013-05-24 13:00:00,60.5,44.7,30.39,SW,228,3.0,7.0,56,0.00,,,0.01,Wunderground v.1.15,2013-05-24 18:00:00,
2013-05-24 13:02:00,60.5,43.8,30.39,ENE,60,3.0,7.0,54,0.00,,,0.01,Wunderground v.1.15,2013-05-24 18:02:00,
2013-05-24 13:06:00,60.7,43.9,30.39,SE,133,2.0,7.0,54,0.00,,,0.01,Wunderground v.1.15,2013-05-24 18:06:00,
2013-05-24 13:07:00,61.0,44.7,30.39,South,170,2.0,7.0,55,0.00,,,0.01,Wunderground v.1.15,2013-05-24 18:07:00,
2013-05-24 13:10:00,61.6,45.3,30.39,NE,51,2.0,2.0,55,0.00,,,0.01,Wunderground v.1.15,2013-05-24 18:10:00,
2013-05-24 13:11:00,61.8,46.4,30.39,North,4,1.0,2.0,57,0.00,,,0.01,Wunderground v.1.15,2013-05-24 18:11:00,
2013-05-24 13:15:00,62.7,46.3,30.38,ESE,110,1.0,2.0,55,0.00,,,0.01,Wunderground v.1.15,2013-05-24 18:15:00,
2013-05-24 13:16:00,62.9,47.9,30.38,East,85,1.0,2.0,58,0.00,,,0.01,Wunderground v.1.15,2013-05-24 18:16:00,
2013-05-24 13:19:00,62.6,43.7,30.38,ENE,60,1.0,4.0,50,0.00,,,0.01,Wunderground v.1.15,2013-05-24 18:19:00,
2013-05-24 13:20:00,62.5,45.1,30.38,ESE,122,1.0,2.0,53,0.00,,,0.01,Wunderground v.1.15,2013-05-24 18:20:00,
2013-05-24 13:21:00,62.4,45.5,30.38,NE,49,1.0,2.0,54,0.00,,,0.01,Wunderground v.1.15,2013-05-24 18:21:00,
2013-05-24 13:23:00,62.5,47.1,30.38,NE,40,1.0,2.0,57,0.00,,,0.01,Wunderground v.1.15,2013-05-24 18:23:00,
2013-05-24 13:24:00,62.6,44.2,30.38,East,85,1.0,3.0,51,0.00,,,0.01,Wunderground v.1.15,2013-05-24 18:24:00,
2013-05-24 13:26:00,62.4,42.4,30.38,East,81,2.0,6.0,48,0.00,,,0.01,Wunderground v.1.15,2013-05-24 18:26:00,
2013-05-24 13:29:00,62.0,45.6,30.37,NE,44,2.0,6.0,55,0.00,,,0.01,Wunderground v.1.15,2013-05-24 18:29:00,
2013-05-24 13:30:00,62.1,44.8,30.37,NNE,27,2.0,3.0,53,0.00,,,0.01,Wunderground v.1.15,2013-05-24 18:30:00,
2013-05-24 13:34:00,61.8,41.9,30.37,ESE,108,3.0,4.0,48,0.00,,,0.01,Wunderground v.1.15,2013-05-24 18:34:00,
2013-05-24 13:35:00,61.8,42.4,30.37,NNE,27,3.0,4.0,49,0.00,,,0.01,Wunderground v.1.15,2013-05-24 18:35:00,
2013-05-24 13:36:00,61.8,42.4,30.37,NE,56,3.0,4.0,49,0.00,,,0.01,Wunderground v.1.15,2013-05-24 18:36:00,
2013-05-24 13:37:00,61.7,41.3,30.37,ENE,78,3.0,4.0,47,0.00,,,0.01,Wunderground v.1.15,2013-05-24 18:37:00,
2013-05-24 13:40:00,61.8,41.9,30.37,East,93,3.0,3.0,48,0.00,,,0.01,Wunderground v.1.15,2013-05-24 18:40:00,
2013-05-24 13:42:00,62.0,42.6,30.37,ENE,73,2.0,5.0,49,0.00,,,0.01,Wunderground v.1.15,2013-05-24 18:42:00,
2013-05-24 13:44:00,62.2,42.3,30.37,NE,39,2.0,5.0,48,0.00,,,0.01,Wunderground v.1.15,2013-05-24 18:44:00,
2013-05-24 13:45:00,62.2,41.2,30.36,ENE,61,2.0,5.0,46,0.00,,,0.01,Wunderground v.1.15,2013-05-24 18:45:00,
2013-05-24 13:46:00,62.2,41.2,30.36,East,86,2.0,5.0,46,0.00,,,0.01,Wunderground v.1.15,2013-05-24 18:46:00,
2013-05-24 13:48:00,62.1,41.6,30.36,ENE,74,2.0,5.0,47,0.00,,,0.01,Wunderground v.1.15,2013-05-24 18:48:00,
2013-05-24 13:51:00,62.3,41.8,30.36,ENE,71,3.0,4.0,47,0.00,,,0.01,Wunderground v.1.15,2013-05-24 18:51:00,
2013-05-24 13:54:00,62.5,43.1,30.37,ENE,58,3.0,9.0,49,0.00,,,0.01,Wunderground v.1.15,2013-05-24 18:54:00,
2013-05-24 13:55:00,62.5,42.0,30.36,NE,56,3.0,9.0,47,0.00,,,0.01,Wunderground v.1.15,2013-05-24 18:55:00,
2013-05-24 13:56:00,62.5,41.4,30.36,ENE,58,3.0,9.0,46,0.00,,,0.01,Wunderground v.1.15,2013-05-24 18:56:00,
2013-05-24 13:58:00,62.5,42.0,30.36,ENE,73,3.0,9.0,47,0.00,,,0.01,Wunderground v.1.15,2013-05-24 18:58:00,
2013-05-24 13:59:00,62.5,42.5,30.36,East,85,2.0,9.0,48,0.00,,,0.01,Wunderground v.1.15,2013-05-24 18:59:00,
2013-05-24 14:00:00,62.5,42.5,30.36,ENE,58,3.0,3.0,48,0.00,,,0.01,Wunderground v.1.15,2013-05-24 19:00:00,
2013-05-24 14:01:00,62.5,43.1,30.36,West,270,3.0,3.0,49,0.00,,,0.01,Wunderground v.1.15,2013-05-24 19:01:00,
2013-05-24 14:02:00,62.5,43.6,30.36,ESE,123,3.0,5.0,50,0.00,,,0.01,Wunderground v.1.15,2013-05-24 19:02:00,
2013-05-24 14:03:00,62.5,42.5,30.36,ENE,65,3.0,5.0,48,0.00,,,0.01,Wunderground v.1.15,2013-05-24 19:03:00,
2013-05-24 14:06:00,62.7,42.7,30.36,ESE,120,3.0,6.0,48,0.00,,,0.01,Wunderground v.1.15,2013-05-24 19:06:00,
2013-05-24 14:07:00,62.7,43.3,30.36,East,91,3.0,6.0,49,0.00,,,0.01,Wunderground v.1.15,2013-05-24 19:07:00,
2013-05-24 14:08:00,62.7,43.3,30.36,ENE,69,4.0,9.0,49,0.00,,,0.01,Wunderground v.1.15,2013-05-24 19:08:00,
2013-05-24 14:09:00,62.8,43.9,30.35,East,85,4.0,9.0,50,0.00,,,0.01,Wunderground v.1.15,2013-05-24 19:09:00,
2013-05-24 14:11:00,63.0,41.9,30.36,East,88,4.0,5.0,46,0.00,,,0.01,Wunderground v.1.15,2013-05-24 19:11:00,
2013-05-24 14:12:00,63.0,41.3,30.35,East,80,4.0,5.0,45,0.00,,,0.01,Wunderground v.1.15,2013-05-24 19:12:00,
2013-05-24 14:16:00,62.9,40.6,30.36,ESE,117,4.0,5.0,44,0.00,,,0.01,Wunderground v.1.15,2013-05-24 19:16:00,
2013-05-24 14:19:00,63.0,41.9,30.36,East,85,3.0,5.0,46,0.00,,,0.01,Wunderground v.1.15,2013-05-24 19:19:00,
2013-05-24 14:20:00,63.1,42.5,30.36,ESE,108,3.0,3.0,47,0.00,,,0.01,Wunderground v.1.15,2013-05-24 19:20:00,
2013-05-24 14:21:00,63.2,43.2,30.35,SSE,149,3.0,3.0,48,0.00,,,0.01,Wunderground v.1.15,2013-05-24 19:21:00,
2013-05-24 14:22:00,63.3,42.2,30.35,ESE,104,3.0,3.0,46,0.00,,,0.01,Wunderground v.1.15,2013-05-24 19:22:00,
2013-05-24 14:25:00,63.2,41.5,30.35,South,170,3.0,4.0,45,0.00,,,0.01,Wunderground v.1.15,2013-05-24 19:25:00,
2013-05-24 14:27:00,63.3,42.2,30.35,NE,49,2.0,7.0,46,0.00,,,0.01,Wunderground v.1.15,2013-05-24 19:27:00,
2013-05-24 14:29:00,63.2,40.9,30.35,NE,44,3.0,7.0,44,0.00,,,0.01,Wunderground v.1.15,2013-05-24 19:29:00,
2013-05-24 14:30:00,63.1,40.2,30.35,NE,56,3.0,3.0,43,0.00,,,0.01,Wunderground v.1.15,2013-05-24 19:30:00,
2013-05-24 14:31:00,63.1,41.4,30.35,East,84,3.0,3.0,45,0.00,,,0.01,Wunderground v.1.15,2013-05-24 19:31:00,
2013-05-24 14:33:00,63.1,42.0,30.34,East,82,3.0,3.0,46,0.00,,,0.01,Wunderground v.1.15,2013-05-24 19:33:00,
2013-05-24 14:34:00,63.2,43.7,30.34,East,84,3.0,3.0,49,0.00,,,0.01,Wunderground v.1.15,2013-05-24 19:34:00,
2013-05-24 14:36:00,63.4,43.4,30.34,ESE,102,3.0,3.0,48,0.00,,,0.01,Wunderground v.1.15,2013-05-24 19:36:00,
2013-05-24 14:37:00,63.5,43.4,30.34,ESE,120,3.0,3.0,48,0.00,,,0.01,Wunderground v.1.15,2013-05-24 19:37:00,
2013-05-24 14:39:00,63.6,44.1,30.35,ENE,75,2.0,3.0,49,0.00,,,0.01,Wunderground v.1.15,2013-05-24 19:39:00,
2013-05-24 14:40:00,63.6,43.0,30.35,SE,141,2.0,6.0,47,0.00,,,0.01,Wunderground v.1.15,2013-05-24 19:40:00,
2013-05-24 14:42:00,63.6,44.1,30.34,SSE,165,3.0,6.0,49,0.00,,,0.01,Wunderground v.1.15,2013-05-24 19:42:00,
2013-05-24 14:43:00,63.6,43.0,30.35,SE,134,3.0,6.0,47,0.00,,,0.01,Wunderground v.1.15,2013-05-24 19:43:00,
2013-05-24 14:47:00,63.7,43.6,30.34,ESE,113,4.0,6.0,48,0.00,,,0.01,Wunderground v.1.15,2013-05-24 19:47:00,
2013-05-24 14:50:00,63.7,43.1,30.34,East,98,3.0,4.0,47,0.00,,,0.01,Wunderground v.1.15,2013-05-24 19:50:00,
2013-05-24 14:52:00,63.9,43.8,30.34,East,84,3.0,4.0,48,0.00,,,0.01,Wunderground v.1.15,2013-05-24 19:52:00,
2013-05-24 14:53:00,64.0,43.4,30.34,East,94,3.0,4.0,47,0.00,,,0.01,Wunderground v.1.15,2013-05-24 19:53:00,
2013-05-24 14:54:00,64.1,44.0,30.34,ENE,78,3.0,4.0,48,0.00,,,0.01,Wunderground v.1.15,2013-05-24 19:54:00,
2013-05-24 14:56:00,64.0,42.2,30.34,ESE,113,3.0,4.0,45,0.00,,,0.01,Wunderground v.1.15,2013-05-24 19:56:00,
2013-05-24 15:00:00,64.2,43.5,30.34,East,101,3.0,3.0,47,0.00,,,0.01,Wunderground v.1.15,2013-05-24 20:00:00,
2013-05-24 15:01:00,64.2,42.4,30.34,ENE,65,3.0,8.0,45,0.00,,,0.01,Wunderground v.1.15,2013-05-24 20:01:00,
2013-05-24 15:03:00,63.9,41.5,30.34,East,100,3.0,8.0,44,0.00,,,0.01,Wunderground v.1.15,2013-05-24 20:03:00,
2013-05-24 15:06:00,63.6,41.3,30.34,East,79,3.0,8.0,44,0.00,,,0.01,Wunderground v.1.15,2013-05-24 20:06:00,
2013-05-24 15:08:00,63.7,41.4,30.33,ESE,106,3.0,8.0,44,0.00,,,0.01,Wunderground v.1.15,2013-05-24 20:08:00,
2013-05-24 15:10:00,63.7,41.4,30.33,ENE,75,4.0,5.0,44,0.00,,,0.01,Wunderground v.1.15,2013-05-24 20:10:00,
2013-05-24 15:12:00,63.7,41.9,30.33,East,79,4.0,5.0,45,0.00,,,0.01,Wunderground v.1.15,2013-05-24 20:12:00,
2013-05-24 15:13:00,63.7,41.9,30.33,East,86,3.0,5.0,45,0.00,,,0.01,Wunderground v.1.15,2013-05-24 20:13:00,
2013-05-24 15:15:00,63.9,40.3,30.33,WSW,258,2.0,5.0,42,0.00,,,0.01,Wunderground v.1.15,2013-05-24 20:15:00,
2013-05-24 15:16:00,64.0,40.4,30.33,West,269,2.0,5.0,42,0.00,,,0.01,Wunderground v.1.15,2013-05-24 20:16:00,
2013-05-24 15:17:00,64.1,40.5,30.33,West,269,2.0,5.0,42,0.00,,,0.01,Wunderground v.1.15,2013-05-24 20:17:00,
2013-05-24 15:18:00,64.4,42.0,30.33,ESE,120,2.0,5.0,44,0.00,,,0.01,Wunderground v.1.15,2013-05-24 20:18:00,
2013-05-24 15:22:00,64.4,42.0,30.33,SE,139,1.0,4.0,44,0.00,,,0.01,Wunderground v.1.15,2013-05-24 20:22:00,
2013-05-24 15:23:00,64.4,42.6,30.33,SE,129,1.0,6.0,45,0.00,,,0.01,Wunderground v.1.15,2013-05-24 20:23:00,
2013-05-24 15:24:00,64.3,40.7,30.33,ESE,108,2.0,6.0,42,0.00,,,0.01,Wunderground v.1.15,2013-05-24 20:24:00,
2013-05-24 15:26:00,64.3,41.3,30.33,SSE,159,3.0,6.0,43,0.00,,,0.01,Wunderground v.1.15,2013-05-24 20:26:00,
2013-05-24 15:29:00,64.5,41.5,30.33,SSE,166,3.0,6.0,43,0.00,,,0.01,Wunderground v.1.15,2013-05-24 20:29:00,
2013-05-24 15:31:00,64.5,42.1,30.33,SSE,159,4.0,6.0,44,0.00,,,0.01,Wunderground v.1.15,2013-05-24 20:31:00,
2013-05-24 15:32:00,64.5,41.5,30.34,ESE,117,4.0,6.0,43,0.00,,,0.01,Wunderground v.1.15,2013-05-24 20:32:00,
2013-05-24 15:35:00,64.6,41.6,30.34,SSE,156,4.0,6.0,43,0.00,,,0.01,Wunderground v.1.15,2013-05-24 20:35:00,
2013-05-24 15:36:00,64.6,41.6,30.33,SE,138,4.0,6.0,43,0.00,,,0.01,Wunderground v.1.15,2013-05-24 20:36:00,
2013-05-24 15:37:00,64.6,41.6,30.33,SSW,193,4.0,6.0,43,0.00,,,0.01,Wunderground v.1.15,2013-05-24 20:37:00,
2013-05-24 15:38:00,64.7,44.0,30.33,ESE,120,4.0,6.0,47,0.00,,,0.01,Wunderground v.1.15,2013-05-24 20:38:00,
2013-05-24 15:43:00,64.4,40.2,30.33,SE,124,4.0,7.0,41,0.00,,,0.01,Wunderground v.1.15,2013-05-24 20:43:00,
2013-05-24 15:44:00,64.4,38.9,30.33,SE,146,4.0,7.0,39,0.00,,,0.01,Wunderground v.1.15,2013-05-24 20:44:00,
2013-05-24 15:45:00,64.4,39.5,30.33,SSE,167,4.0,7.0,40,0.00,,,0.01,Wunderground v.1.15,2013-05-24 20:45:00,
2013-05-24 15:48:00,64.6,41.0,30.33,SSE,167,5.0,7.0,42,0.00,,,0.01,Wunderground v.1.15,2013-05-24 20:48:00,
2013-05-24 15:50:00,64.9,41.2,30.33,ENE,63,4.0,4.0,42,0.00,,,0.01,Wunderground v.1.15,2013-05-24 20:50:00,
2013-05-24 15:52:00,65.0,40.1,30.33,SE,143,3.0,4.0,40,0.00,,,0.01,Wunderground v.1.15,2013-05-24 20:52:00,
2013-05-24 15:53:00,65.1,40.8,30.33,ESE,110,3.0,4.0,41,0.00,,,0.01,Wunderground v.1.15,2013-05-24 20:53:00,
2013-05-24 15:54:00,65.1,40.2,30.33,NE,54,3.0,6.0,40,0.00,,,0.01,Wunderground v.1.15,2013-05-24 20:54:00,
2013-05-24 15:55:00,65.0,38.1,30.33,ESE,117,3.0,6.0,37,0.00,,,0.01,Wunderground v.1.15,2013-05-24 20:55:00,
2013-05-24 15:58:00,64.9,40.6,30.33,ENE,75,2.0,6.0,41,0.00,,,0.01,Wunderground v.1.15,2013-05-24 20:58:00,
2013-05-24 16:00:00,64.9,39.3,30.33,South,190,2.0,2.0,39,0.00,,,0.01,Wunderground v.1.15,2013-05-24 21:00:00,
2013-05-24 16:01:00,64.9,40.0,30.33,SW,225,2.0,2.0,40,0.00,,,0.01,Wunderground v.1.15,2013-05-24 21:01:00,
2013-05-24 16:02:00,65.0,43.1,30.33,East,84,1.0,2.0,45,0.00,,,0.01,Wunderground v.1.15,2013-05-24 21:02:00,
2013-05-24 16:04:00,65.3,41.6,30.33,SSE,163,1.0,6.0,42,0.00,,,0.01,Wunderground v.1.15,2013-05-24 21:04:00,
2013-05-24 16:07:00,65.4,42.3,30.33,ESE,120,2.0,7.0,43,0.00,,,0.01,Wunderground v.1.15,2013-05-24 21:07:00,
2013-05-24 16:08:00,65.5,43.0,30.33,SE,141,2.0,7.0,44,0.00,,,0.01,Wunderground v.1.15,2013-05-24 21:08:00,
2013-05-24 16:09:00,65.5,42.4,30.33,SE,127,2.0,7.0,43,0.00,,,0.01,Wunderground v.1.15,2013-05-24 21:09:00,
2013-05-24 16:10:00,65.5,43.0,30.33,East,99,2.0,2.0,44,0.00,,,0.01,Wunderground v.1.15,2013-05-24 21:10:00,
2013-05-24 16:11:00,65.6,41.9,30.33,ENE,64,2.0,2.0,42,0.00,,,0.01,Wunderground v.1.15,2013-05-24 21:11:00,
2013-05-24 16:14:00,65.6,41.3,30.33,ESE,117,2.0,3.0,41,0.00,,,0.01,Wunderground v.1.15,2013-05-24 21:14:00,
2013-05-24 16:16:00,65.6,41.9,30.32,SSE,165,2.0,3.0,42,0.00,,,0.01,Wunderground v.1.15,2013-05-24 21:16:00,
2013-05-24 16:19:00,65.8,42.1,30.32,SE,128,1.0,7.0,42,0.00,,,0.01,Wunderground v.1.15,2013-05-24 21:19:00,
2013-05-24 16:22:00,65.8,40.1,30.32,ESE,120,2.0,4.0,39,0.00,,,0.01,Wunderground v.1.15,2013-05-24 21:22:00,
2013-05-24 16:24:00,65.6,40.0,30.32,ESE,114,2.0,4.0,39,0.00,,,0.01,Wunderground v.1.15,2013-05-24 21:24:00,
2013-05-24 16:26:00,65.6,38.6,30.32,SE,134,3.0,4.0,37,0.00,,,0.01,Wunderground v.1.15,2013-05-24 21:26:00,
2013-05-24 16:27:00,65.5,39.2,30.32,SSE,167,3.0,4.0,38,0.00,,,0.01,Wunderground v.1.15,2013-05-24 21:27:00,
2013-05-24 16:29:00,65.6,40.0,30.32,SSW,203,2.0,4.0,39,0.00,,,0.01,Wunderground v.1.15,2013-05-24 21:29:00,
2013-05-24 16:31:00,65.9,40.2,30.32,SSE,153,2.0,2.0,39,0.00,,,0.01,Wunderground v.1.15,2013-05-24 21:31:00,
2013-05-24 16:32:00,66.0,41.0,30.32,SE,125,2.0,2.0,40,0.00,,,0.01,Wunderground v.1.15,2013-05-24 21:32:00,
2013-05-24 16:34:00,66.3,43.1,30.32,SSW,201,1.0,2.0,43,0.00,,,0.01,Wunderground v.1.15,2013-05-24 21:34:00,
2013-05-24 16:37:00,66.7,42.2,30.31,SSE,160,1.0,2.0,41,0.00,,,0.01,Wunderground v.1.15,2013-05-24 21:37:00,
2013-05-24 16:38:00,66.8,43.6,30.31,SSE,167,1.0,3.0,43,0.00,,,0.01,Wunderground v.1.15,2013-05-24 21:38:00,
2013-05-24 16:39:00,66.9,41.8,30.31,South,174,1.0,3.0,40,0.00,,,0.01,Wunderground v.1.15,2013-05-24 21:39:00,
2013-05-24 16:43:00,67.0,43.8,30.31,SW,235,1.0,1.0,43,0.00,,,0.01,Wunderground v.1.15,2013-05-24 21:43:00,
2013-05-24 16:45:00,66.9,41.1,30.31,NE,49,1.0,1.0,39,0.00,,,0.01,Wunderground v.1.15,2013-05-24 21:45:00,
2013-05-24 16:46:00,66.9,43.0,30.31,ESE,115,1.0,4.0,42,0.00,,,0.01,Wunderground v.1.15,2013-05-24 21:46:00,
2013-05-24 16:48:00,66.8,41.0,30.31,ESE,114,1.0,4.0,39,0.00,,,0.01,Wunderground v.1.15,2013-05-24 21:48:00,
2013-05-24 16:49:00,66.6,39.5,30.31,SSE,153,2.0,4.0,37,0.00,,,0.01,Wunderground v.1.15,2013-05-24 21:49:00,
2013-05-24 16:51:00,66.6,40.9,30.31,ESE,104,1.0,1.0,39,0.00,,,0.01,Wunderground v.1.15,2013-05-24 21:51:00,
2013-05-24 16:52:00,66.6,40.9,30.31,ESE,114,1.0,1.0,39,0.00,,,0.01,Wunderground v.1.15,2013-05-24 21:52:00,
2013-05-24 16:53:00,66.6,41.5,30.31,SE,134,1.0,1.0,40,0.00,,,0.01,Wunderground v.1.15,2013-05-24 21:53:00,
2013-05-24 16:56:00,66.5,40.8,30.31,ESE,122,2.0,5.0,39,0.00,,,0.01,Wunderground v.1.15,2013-05-24 21:56:00,
2013-05-24 16:57:00,66.4,41.3,30.31,SE,129,2.0,5.0,40,0.00,,,0.01,Wunderground v.1.15,2013-05-24 21:57:00,
2013-05-24 16:58:00,66.3,41.9,30.31,SSE,148,2.0,5.0,41,0.00,,,0.01,Wunderground v.1.15,2013-05-24 21:58:00,
2013-05-24 17:00:00,66.3,41.9,30.31,SE,145,2.0,2.0,41,0.00,,,0.01,Wunderground v.1.15,2013-05-24 22:00:00,
2013-05-24 17:03:00,66.7,43.5,30.31,East,101,2.0,3.0,43,0.00,,,0.01,Wunderground v.1.15,2013-05-24 22:03:00,
2013-05-24 17:05:00,66.7,42.9,30.31,East,101,2.0,3.0,42,0.00,,,0.01,Wunderground v.1.15,2013-05-24 22:05:00,
2013-05-24 17:07:00,66.8,43.0,30.31,SE,129,1.0,4.0,42,0.00,,,0.01,Wunderground v.1.15,2013-05-24 22:07:00,
2013-05-24 17:11:00,66.4,42.6,30.30,SE,127,2.0,3.0,42,0.00,,,0.01,Wunderground v.1.15,2013-05-24 22:11:00,
2013-05-24 17:12:00,66.3,42.5,30.30,SE,136,3.0,3.0,42,0.00,,,0.01,Wunderground v.1.15,2013-05-24 22:12:00,
2013-05-24 17:17:00,66.3,42.5,30.30,SSW,210,3.0,5.0,42,0.00,,,0.01,Wunderground v.1.15,2013-05-24 22:17:00,
2013-05-24 17:19:00,66.3,41.2,30.30,SW,219,2.0,5.0,40,0.00,,,0.01,Wunderground v.1.15,2013-05-24 22:19:00,
2013-05-24 17:21:00,66.6,42.8,30.30,West,278,1.0,2.0,42,0.00,,,0.01,Wunderground v.1.15,2013-05-24 22:21:00,
2013-05-24 17:22:00,66.7,44.1,30.30,SSE,150,1.0,2.0,44,0.00,,,0.01,Wunderground v.1.15,2013-05-24 22:22:00,
2013-05-24 17:24:00,66.9,43.0,30.30,SW,219,1.0,2.0,42,0.00,,,0.01,Wunderground v.1.15,2013-05-24 22:24:00,
2013-05-24 17:25:00,67.0,43.1,30.30,East,89,1.0,3.0,42,0.00,,,0.01,Wunderground v.1.15,2013-05-24 22:25:00,
2013-05-24 17:27:00,66.9,43.7,30.30,ENE,78,1.0,3.0,43,0.00,,,0.01,Wunderground v.1.15,2013-05-24 22:27:00,
2013-05-24 17:29:00,66.9,43.0,30.30,East,82,1.0,3.0,42,0.00,,,0.01,Wunderground v.1.15,2013-05-24 22:29:00,
2013-05-24 17:30:00,66.9,43.0,30.30,ESE,122,1.0,4.0,42,0.00,,,0.01,Wunderground v.1.15,2013-05-24 22:30:00,
2013-05-24 17:32:00,66.7,43.5,30.30,ESE,115,2.0,4.0,43,0.00,,,0.01,Wunderground v.1.15,2013-05-24 22:32:00,
2013-05-24 17:33:00,66.6,42.8,30.30,SSE,156,2.0,4.0,42,0.00,,,0.01,Wunderground v.1.15,2013-05-24 22:33:00,
2013-05-24 17:35:00,66.6,44.0,30.30,ENE,72,2.0,4.0,44,0.00,,,0.01,Wunderground v.1.15,2013-05-24 22:35:00,
2013-05-24 17:37:00,66.6,43.4,30.29,SE,131,1.0,4.0,43,0.00,,,0.01,Wunderground v.1.15,2013-05-24 22:37:00,
2013-05-24 17:38:00,66.7,44.1,30.29,East,88,1.0,4.0,44,0.00,,,0.01,Wunderground v.1.15,2013-05-24 22:38:00,
2013-05-24 17:41:00,66.9,44.3,30.29,ESE,109,1.0,5.0,44,0.00,,,0.01,Wunderground v.1.15,2013-05-24 22:41:00,
2013-05-24 17:43:00,66.9,44.3,30.29,East,98,1.0,5.0,44,0.00,,,0.01,Wunderground v.1.15,2013-05-24 22:43:00,
2013-05-24 17:44:00,66.9,44.3,30.29,ESE,122,1.0,5.0,44,0.00,,,0.01,Wunderground v.1.15,2013-05-24 22:44:00,
2013-05-24 17:45:00,66.9,43.7,30.29,ESE,111,1.0,5.0,43,0.00,,,0.01,Wunderground v.1.15,2013-05-24 22:45:00,
2013-05-24 17:49:00,67.1,43.8,30.29,SSE,148,1.0,1.0,43,0.00,,,0.01,Wunderground v.1.15,2013-05-24 22:49:00,
2013-05-24 17:50:00,67.1,45.6,30.29,ENE,67,1.0,6.0,46,0.00,,,0.01,Wunderground v.1.15,2013-05-24 22:50:00,
2013-05-24 17:52:00,67.1,45.0,30.29,NE,51,2.0,6.0,45,0.00,,,0.01,Wunderground v.1.15,2013-05-24 22:52:00,
2013-05-24 17:53:00,67.0,44.9,30.29,NE,51,1.0,6.0,45,0.00,,,0.01,Wunderground v.1.15,2013-05-24 22:53:00,
2013-05-24 17:56:00,66.7,44.7,30.28,ENE,74,2.0,6.0,45,0.00,,,0.01,Wunderground v.1.15,2013-05-24 22:56:00,
2013-05-24 17:57:00,66.5,42.7,30.28,NE,44,2.0,6.0,42,0.00,,,0.01,Wunderground v.1.15,2013-05-24 22:57:00,
2013-05-24 17:58:00,66.4,43.2,30.28,ENE,64,2.0,6.0,43,0.00,,,0.01,Wunderground v.1.15,2013-05-24 22:58:00,
2013-05-24 18:01:00,66.3,44.3,30.28,ESE,106,2.0,3.0,45,0.00,,,0.01,Wunderground v.1.15,2013-05-24 23:01:00,
2013-05-24 18:03:00,66.4,45.5,30.28,ESE,120,1.0,3.0,47,0.00,,,0.01,Wunderground v.1.15,2013-05-24 23:03:00,
2013-05-24 18:05:00,66.3,43.7,30.28,SE,132,2.0,4.0,44,0.00,,,0.01,Wunderground v.1.15,2013-05-24 23:05:00,
2013-05-24 18:06:00,66.3,44.3,30.28,ESE,105,2.0,5.0,45,0.00,,,0.01,Wunderground v.1.15,2013-05-24 23:06:00,
2013-05-24 18:07:00,66.2,44.8,30.28,NE,53,2.0,5.0,46,0.00,,,0.01,Wunderground v.1.15,2013-05-24 23:07:00,
2013-05-24 18:10:00,66.0,43.5,30.28,ENE,68,2.0,2.0,44,0.00,,,0.01,Wunderground v.1.15,2013-05-24 23:10:00,
2013-05-24 18:13:00,65.9,43.4,30.28,SE,129,2.0,3.0,44,0.00,,,0.01,Wunderground v.1.15,2013-05-24 23:13:00,
2013-05-24 18:14:00,66.0,44.0,30.28,SSE,148,2.0,3.0,45,0.00,,,0.01,Wunderground v.1.15,2013-05-24 23:14:00,
2013-05-24 18:15:00,66.0,43.5,30.28,ESE,108,2.0,3.0,44,0.00,,,0.01,Wunderground v.1.15,2013-05-24 23:15:00,
2013-05-24 18:16:00,66.1,44.1,30.28,ENE,60,2.0,3.0,45,0.00,,,0.01,Wunderground v.1.15,2013-05-24 23:16:00,
2013-05-24 18:19:00,66.2,43.6,30.28,ESE,105,2.0,3.0,44,0.00,,,0.01,Wunderground v.1.15,2013-05-24 23:19:00,
2013-05-24 18:20:00,66.1,44.1,30.28,ESE,111,1.0,5.0,45,0.00,,,0.01,Wunderground v.1.15,2013-05-24 23:20:00,
2013-05-24 18:24:00,66.0,42.9,30.28,East,86,2.0,5.0,43,0.00,,,0.01,Wunderground v.1.15,2013-05-24 23:24:00,
2013-05-24 18:26:00,65.9,42.8,30.28,ESE,117,2.0,6.0,43,0.00,,,0.01,Wunderground v.1.15,2013-05-24 23:26:00,
2013-05-24 18:27:00,65.8,42.1,30.28,ESE,110,3.0,6.0,42,0.00,,,0.01,Wunderground v.1.15,2013-05-24 23:27:00,
2013-05-24 18:29:00,65.7,43.2,30.28,ENE,61,3.0,3.0,44,0.00,,,0.01,Wunderground v.1.15,2013-05-24 23:29:00,
2013-05-24 18:31:00,65.7,43.2,30.28,NE,50,3.0,3.0,44,0.00,,,0.01,Wunderground v.1.15,2013-05-24 23:31:00,
2013-05-24 18:32:00,65.6,43.1,30.27,ESE,104,3.0,3.0,44,0.00,,,0.01,Wunderground v.1.15,2013-05-24 23:32:00,
2013-05-24 18:33:00,65.6,43.7,30.28,East,100,2.0,3.0,45,0.00,,,0.01,Wunderground v.1.15,2013-05-24 23:33:00,
2013-05-24 18:37:00,65.7,44.3,30.28,East,99,1.0,3.0,46,0.00,,,0.01,Wunderground v.1.15,2013-05-24 23:37:00,
2013-05-24 18:38:00,65.7,43.8,30.28,SE,142,1.0,3.0,45,0.00,,,0.01,Wunderground v.1.15,2013-05-24 23:38:00,
2013-05-24 18:39:00,65.8,44.4,30.28,SE,131,1.0,3.0,46,0.00,,,0.01,Wunderground v.1.15,2013-05-24 23:39:00,
2013-05-24 18:41:00,65.8,45.0,30.28,SE,133,1.0,2.0,47,0.00,,,0.01,Wunderground v.1.15,2013-05-24 23:41:00,
2013-05-24 18:44:00,65.9,46.2,30.28,East,82,1.0,2.0,49,0.00,,,0.01,Wunderground v.1.15,2013-05-24 23:44:00,
2013-05-24 18:46:00,65.8,43.9,30.28,SE,139,1.0,4.0,45,0.00,,,0.01,Wunderground v.1.15,2013-05-24 23:46:00,
2013-05-24 18:47:00,65.7,43.2,30.28,SE,131,2.0,4.0,44,0.00,,,0.01,Wunderground v.1.15,2013-05-24 23:47:00,
2013-05-24 18:49:00,65.6,44.3,30.28,NE,41,2.0,4.0,46,0.00,,,0.01,Wunderground v.1.15,2013-05-24 23:49:00,
2013-05-24 18:52:00,65.5,44.2,30.28,ENE,74,2.0,4.0,46,0.00,,,0.01,Wunderground v.1.15,2013-05-24 23:52:00,
2013-05-24 18:53:00,65.5,44.2,30.28,NE,38,2.0,4.0,46,0.00,,,0.01,Wunderground v.1.15,2013-05-24 23:53:00,
2013-05-24 18:57:00,65.4,44.6,30.27,ENE,71,1.0,4.0,47,0.00,,,0.01,Wunderground v.1.15,2013-05-24 23:57:00,
2013-05-24 18:58:00,65.3,44.5,30.27,ESE,105,1.0,4.0,47,0.00,,,0.01,Wunderground v.1.15,2013-05-24 23:58:00,
2013-05-24 18:59:00,65.3,44.5,30.27,ESE,121,1.0,4.0,47,0.00,,,0.01,Wunderground v.1.15,2013-05-24 23:59:00,
2013-05-24 19:01:00,65.2,44.5,30.28,East,84,0.0,1.0,47,0.00,,,0.01,Wunderground v.1.15,2013-05-25 00:01:00,
2013-05-24 19:03:00,65.2,45.0,30.27,ESE,104,0.0,1.0,48,0.00,,,0.01,Wunderground v.1.15,2013-05-25 00:03:00,
2013-05-24 19:05:00,65.2,44.5,30.27,ENE,63,0.0,1.0,47,0.00,,,0.01,Wunderground v.1.15,2013-05-25 00:05:00,
2013-05-24 19:07:00,65.2,44.5,30.27,East,86,0.0,1.0,47,0.00,,,0.01,Wunderground v.1.15,2013-05-25 00:07:00,
2013-05-24 19:08:00,65.1,44.9,30.27,ESE,121,0.0,1.0,48,0.00,,,0.01,Wunderground v.1.15,2013-05-25 00:08:00,
2013-05-24 19:09:00,65.1,44.4,30.27,East,82,0.0,1.0,47,0.00,,,0.01,Wunderground v.1.15,2013-05-25 00:09:00,
2013-05-24 19:10:00,65.1,44.4,30.27,East,88,0.0,0.0,47,0.00,,,0.01,Wunderground v.1.15,2013-05-25 00:10:00,
2013-05-24 19:12:00,64.9,44.2,30.27,East,94,0.0,2.0,47,0.00,,,0.01,Wunderground v.1.15,2013-05-25 00:12:00,
2013-05-24 19:14:00,64.9,44.7,30.27,ESE,109,0.0,2.0,48,0.00,,,0.01,Wunderground v.1.15,2013-05-25 00:14:00,
2013-05-24 19:15:00,64.9,44.2,30.27,ESE,110,0.0,2.0,47,0.00,,,0.01,Wunderground v.1.15,2013-05-25 00:15:00,
2013-05-24 19:16:00,64.7,44.5,30.27,ENE,58,0.0,2.0,48,0.00,,,0.01,Wunderground v.1.15,2013-05-25 00:16:00,
2013-05-24 19:18:00,64.6,44.5,30.27,ESE,108,0.0,2.0,48,0.00,,,0.01,Wunderground v.1.15,2013-05-25 00:18:00,
2013-05-24 19:19:00,64.5,44.4,30.27,SE,127,0.0,2.0,48,0.00,,,0.01,Wunderground v.1.15,2013-05-25 00:19:00,
2013-05-24 19:21:00,64.3,43.6,30.27,East,86,0.0,2.0,47,0.00,,,0.01,Wunderground v.1.15,2013-05-25 00:21:00,
2013-05-24 19:24:00,64.0,43.9,30.27,SE,128,0.0,2.0,48,0.00,,,0.01,Wunderground v.1.15,2013-05-25 00:24:00,
2013-05-24 19:26:00,63.8,43.7,30.27,SE,128,0.0,2.0,48,0.00,,,0.01,Wunderground v.1.15,2013-05-25 00:26:00,
2013-05-24 19:28:00,63.7,44.2,30.27,ENE,58,0.0,2.0,49,0.00,,,0.01,Wunderground v.1.15,2013-05-25 00:28:00,
2013-05-24 19:29:00,63.5,44.0,30.27,ENE,72,1.0,2.0,49,0.00,,,0.01,Wunderground v.1.15,2013-05-25 00:29:00,
2013-05-24 19:30:00,63.4,43.9,30.27,NE,38,1.0,1.0,49,0.00,,,0.01,Wunderground v.1.15,2013-05-25 00:30:00,
2013-05-24 19:33:00,63.0,43.5,30.27,East,86,1.0,1.0,49,0.00,,,0.01,Wunderground v.1.15,2013-05-25 00:33:00,
2013-05-24 19:34:00,62.9,43.4,30.28,East,101,1.0,1.0,49,0.00,,,0.01,Wunderground v.1.15,2013-05-25 00:34:00,
2013-05-24 19:38:00,62.6,43.2,30.28,East,96,0.0,1.0,49,0.00,,,0.01,Wunderground v.1.15,2013-05-25 00:38:00,
2013-05-24 19:40:00,62.5,43.6,30.28,East,88,0.0,0.0,50,0.00,,,0.01,Wunderground v.1.15,2013-05-25 00:40:00,
2013-05-24 19:41:00,62.4,43.5,30.28,East,89,0.0,0.0,50,0.00,,,0.01,Wunderground v.1.15,2013-05-25 00:41:00,
2013-05-24 19:44:00,62.2,43.3,30.28,ENE,74,0.0,0.0,50,0.00,,,0.01,Wunderground v.1.15,2013-05-25 00:44:00,
2013-05-24 19:45:00,62.1,43.2,30.28,East,88,0.0,0.0,50,0.00,,,0.01,Wunderground v.1.15,2013-05-25 00:45:00,
2013-05-24 19:46:00,62.0,43.1,30.28,East,86,0.0,0.0,50,0.00,,,0.01,Wunderground v.1.15,2013-05-25 00:46:00,
2013-05-24 19:50:00,61.6,43.8,30.28,SE,129,0.0,0.0,52,0.00,,,0.01,Wunderground v.1.15,2013-05-25 00:50:00,
2013-05-24 19:51:00,61.5,43.7,30.28,SE,128,0.0,0.0,52,0.00,,,0.01,Wunderground v.1.15,2013-05-25 00:51:00,
2013-05-24 19:52:00,61.4,43.6,30.28,SE,129,0.0,0.0,52,0.00,,,0.01,Wunderground v.1.15,2013-05-25 00:52:00,
2013-05-24 19:53:00,61.2,43.9,30.28,SE,128,0.0,0.0,53,0.00,,,0.01,Wunderground v.1.15,2013-05-25 00:53:00,
2013-05-24 19:56:00,60.7,43.5,30.28,SE,128,0.0,0.0,53,0.00,,,0.01,Wunderground v.1.15,2013-05-25 00:56:00,
2013-05-24 19:57:00,60.5,43.3,30.28,SE,128,0.0,0.0,53,0.00,,,0.01,Wunderground v.1.15,2013-05-25 00:57:00,
2013-05-24 19:58:00,60.3,43.1,30.28,East,98,0.0,0.0,53,0.00,,,0.01,Wunderground v.1.15,2013-05-25 00:58:00,
2013-05-24 19:59:00,60.2,43.0,30.28,East,98,0.0,0.0,53,0.00,,,0.01,Wunderground v.1.15,2013-05-25 00:59:00,
2013-05-24 20:02:00,59.9,43.7,30.28,East,98,0.0,0.0,55,0.00,,,0.01,Wunderground v.1.15,2013-05-25 01:02:00,
2013-05-24 20:03:00,59.8,44.1,30.28,East,98,0.0,0.0,56,0.00,,,0.01,Wunderground v.1.15,2013-05-25 01:03:00,
2013-05-24 20:04:00,59.7,44.9,30.28,East,98,0.0,0.0,58,0.00,,,0.01,Wunderground v.1.15,2013-05-25 01:04:00,
2013-05-24 20:05:00,59.5,45.2,30.28,East,98,0.0,0.0,59,0.00,,,0.01,Wunderground v.1.15,2013-05-25 01:05:00,
2013-05-24 20:09:00,58.9,46.3,30.28,East,97,0.0,0.0,63,0.00,,,0.01,Wunderground v.1.15,2013-05-25 01:09:00,
2013-05-24 20:10:00,58.7,46.1,30.28,East,98,0.0,0.0,63,0.00,,,0.01,Wunderground v.1.15,2013-05-25 01:10:00,
2013-05-24 20:11:00,58.5,45.5,30.28,East,98,0.0,0.0,62,0.00,,,0.01,Wunderground v.1.15,2013-05-25 01:11:00,
2013-05-24 20:16:00,57.5,45.0,30.28,East,98,0.0,0.0,63,0.00,,,0.01,Wunderground v.1.15,2013-05-25 01:16:00,
2013-05-24 20:17:00,57.4,44.5,30.29,East,98,0.0,0.0,62,0.00,,,0.01,Wunderground v.1.15,2013-05-25 01:17:00,
2013-05-24 20:19:00,57.2,43.9,30.29,East,98,0.0,0.0,61,0.00,,,0.01,Wunderground v.1.15,2013-05-25 01:19:00,
2013-05-24 20:23:00,56.9,44.0,30.29,East,98,0.0,0.0,62,0.00,,,0.01,Wunderground v.1.15,2013-05-25 01:23:00,
2013-05-24 20:24:00,56.8,44.7,30.29,East,97,0.0,0.0,64,0.00,,,0.01,Wunderground v.1.15,2013-05-25 01:24:00,
2013-05-24 20:25:00,56.6,45.8,30.29,East,98,0.0,0.0,67,0.00,,,0.01,Wunderground v.1.15,2013-05-25 01:25:00,
2013-05-24 20:26:00,56.5,44.5,30.29,East,98,0.0,0.0,64,0.00,,,0.01,Wunderground v.1.15,2013-05-25 01:26:00,
2013-05-24 20:27:00,56.4,45.6,30.29,East,97,0.0,0.0,67,0.00,,,0.01,Wunderground v.1.15,2013-05-25 01:27:00,
2013-05-24 20:29:00,56.1,44.9,30.29,East,98,0.0,0.0,66,0.00,,,0.01,Wunderground v.1.15,2013-05-25 01:29:00,
2013-05-24 20:32:00,55.9,44.7,30.29,East,97,0.0,0.0,66,0.00,,,0.01,Wunderground v.1.15,2013-05-25 01:32:00,
2013-05-24 20:33:00,55.7,44.5,30.29,East,98,0.0,0.0,66,0.00,,,0.01,Wunderground v.1.15,2013-05-25 01:33:00,
2013-05-24 20:34:00,55.6,44.8,30.29,East,98,0.0,0.0,67,0.00,,,0.01,Wunderground v.1.15,2013-05-25 01:34:00,
2013-05-24 20:37:00,55.4,45.4,30.29,East,98,0.0,0.0,69,0.00,,,0.01,Wunderground v.1.15,2013-05-25 01:37:00,
2013-05-24 20:38:00,55.3,46.8,30.29,East,98,0.0,0.0,73,0.00,,,0.01,Wunderground v.1.15,2013-05-25 01:38:00,
2013-05-24 20:39:00,55.2,47.4,30.29,East,98,0.0,0.0,75,0.00,,,0.01,Wunderground v.1.15,2013-05-25 01:39:00,
2013-05-24 20:42:00,54.9,46.4,30.29,East,98,0.0,0.0,73,0.00,,,0.01,Wunderground v.1.15,2013-05-25 01:42:00,
2013-05-24 20:45:00,54.7,46.9,30.29,East,98,0.0,0.0,75,0.00,,,0.01,Wunderground v.1.15,2013-05-25 01:45:00,
2013-05-24 20:48:00,54.3,46.2,30.29,East,98,0.0,0.0,74,0.00,,,0.01,Wunderground v.1.15,2013-05-25 01:48:00,
2013-05-24 20:49:00,54.1,46.3,30.29,East,98,0.0,0.0,75,0.00,,,0.01,Wunderground v.1.15,2013-05-25 01:49:00,
2013-05-24 20:51:00,54.0,47.0,30.29,East,98,0.0,0.0,77,0.00,,,0.01,Wunderground v.1.15,2013-05-25 01:51:00,
2013-05-24 20:53:00,53.8,47.1,30.29,East,98,0.0,0.0,78,0.00,,,0.01,Wunderground v.1.15,2013-05-25 01:53:00,
2013-05-24 20:55:00,53.6,46.9,30.29,East,98,0.0,0.0,78,0.00,,,0.01,Wunderground v.1.15,2013-05-25 01:55:00,
2013-05-24 20:56:00,53.5,46.8,30.29,East,98,0.0,0.0,78,0.00,,,0.01,Wunderground v.1.15,2013-05-25 01:56:00,
2013-05-24 20:58:00,53.3,46.6,30.29,East,98,0.0,0.0,78,0.00,,,0.01,Wunderground v.1.15,2013-05-25 01:58:00,
2013-05-24 20:59:00,53.2,46.2,30.29,East,97,0.0,0.0,77,0.00,,,0.01,Wunderground v.1.15,2013-05-25 01:59:00,
2013-05-24 21:00:00,53.0,46.3,30.29,East,98,0.0,0.0,78,0.00,,,0.01,Wunderground v.1.15,2013-05-25 02:00:00,
2013-05-24 21:03:00,52.8,45.8,30.29,East,98,0.0,0.0,77,0.00,,,0.01,Wunderground v.1.15,2013-05-25 02:03:00,
2013-05-24 21:05:00,52.7,46.0,30.29,East,98,0.0,0.0,78,0.00,,,0.01,Wunderground v.1.15,2013-05-25 02:05:00,
2013-05-24 21:06:00,52.6,46.3,30.29,East,98,0.0,0.0,79,0.00,,,0.01,Wunderground v.1.15,2013-05-25 02:06:00,
2013-05-24 21:07:00,52.5,46.5,30.29,East,98,0.0,0.0,80,0.00,,,0.01,Wunderground v.1.15,2013-05-25 02:07:00,
2013-05-24 21:11:00,52.3,46.6,30.29,East,97,0.0,0.0,81,0.00,,,0.01,Wunderground v.1.15,2013-05-25 02:11:00,
2013-05-24 21:12:00,52.2,46.9,30.29,East,98,0.0,0.0,82,0.00,,,0.01,Wunderground v.1.15,2013-05-25 02:12:00,
2013-05-24 21:14:00,52.1,47.1,30.29,East,97,0.0,0.0,83,0.00,,,0.01,Wunderground v.1.15,2013-05-25 02:14:00,
2013-05-24 21:17:00,51.8,46.5,30.29,East,98,0.0,0.0,82,0.00,,,0.01,Wunderground v.1.15,2013-05-25 02:17:00,
2013-05-24 21:19:00,51.7,46.1,30.29,East,98,0.0,0.0,81,0.00,,,0.01,Wunderground v.1.15,2013-05-25 02:19:00,
2013-05-24 21:20:00,51.7,46.4,30.29,East,97,0.0,0.0,82,0.00,,,0.01,Wunderground v.1.15,2013-05-25 02:20:00,
2013-05-24 21:21:00,51.6,46.3,30.29,East,92,0.0,0.0,82,0.00,,,0.01,Wunderground v.1.15,2013-05-25 02:21:00,
2013-05-24 21:25:00,51.5,45.9,30.29,East,87,0.0,0.0,81,0.00,,,0.01,Wunderground v.1.15,2013-05-25 02:25:00,
2013-05-24 21:26:00,51.4,45.8,30.29,East,87,0.0,0.0,81,0.00,,,0.01,Wunderground v.1.15,2013-05-25 02:26:00,
2013-05-24 21:27:00,51.4,46.1,30.29,East,88,0.0,0.0,82,0.00,,,0.01,Wunderground v.1.15,2013-05-25 02:27:00,
2013-05-24 21:29:00,51.4,46.1,30.30,East,88,0.0,0.0,82,0.00,,,0.01,Wunderground v.1.15,2013-05-25 02:29:00,
2013-05-24 21:31:00,51.4,46.1,30.30,East,87,0.0,0.0,82,0.00,,,0.01,Wunderground v.1.15,2013-05-25 02:31:00,
2013-05-24 21:32:00,51.4,46.4,30.30,East,88,0.0,0.0,83,0.00,,,0.01,Wunderground v.1.15,2013-05-25 02:32:00,
2013-05-24 21:38:00,51.2,46.8,30.30,East,87,0.0,0.0,85,0.00,,,0.01,Wunderground v.1.15,2013-05-25 02:38:00,
2013-05-24 21:39:00,51.2,47.2,30.30,East,88,0.0,0.0,86,0.00,,,0.01,Wunderground v.1.15,2013-05-25 02:39:00,
2013-05-24 21:40:00,51.1,47.1,30.30,East,88,0.0,0.0,86,0.00,,,0.01,Wunderground v.1.15,2013-05-25 02:40:00,
2013-05-24 21:41:00,51.0,47.0,30.30,East,87,0.0,0.0,86,0.00,,,0.01,Wunderground v.1.15,2013-05-25 02:41:00,
2013-05-24 21:42:00,51.0,47.0,30.30,East,88,0.0,0.0,86,0.00,,,0.01,Wunderground v.1.15,2013-05-25 02:42:00,
2013-05-24 21:46:00,50.7,46.7,30.31,East,88,0.0,0.0,86,0.00,,,0.01,Wunderground v.1.15,2013-05-25 02:46:00,
2013-05-24 21:47:00,50.7,46.7,30.31,East,88,0.0,0.0,86,0.00,,,0.01,Wunderground v.1.15,2013-05-25 02:47:00,
2013-05-24 21:48:00,50.7,47.0,30.31,East,88,0.0,0.0,87,0.00,,,0.01,Wunderground v.1.15,2013-05-25 02:48:00,
2013-05-24 21:49:00,50.7,47.0,30.31,East,87,0.0,0.0,87,0.00,,,0.01,Wunderground v.1.15,2013-05-25 02:49:00,
2013-05-24 21:51:00,50.6,46.9,30.31,East,87,0.0,0.0,87,0.00,,,0.01,Wunderground v.1.15,2013-05-25 02:51:00,
2013-05-24 21:55:00,50.4,46.7,30.31,East,88,0.0,0.0,87,0.00,,,0.01,Wunderground v.1.15,2013-05-25 02:55:00,
2013-05-24 21:56:00,50.4,46.7,30.31,East,87,0.0,0.0,87,0.00,,,0.01,Wunderground v.1.15,2013-05-25 02:56:00,
2013-05-24 21:58:00,50.3,46.6,30.31,East,87,0.0,0.0,87,0.00,,,0.01,Wunderground v.1.15,2013-05-25 02:58:00,
2013-05-24 22:00:00,50.2,46.5,30.31,East,87,0.0,0.0,87,0.00,,,0.01,Wunderground v.1.15,2013-05-25 03:00:00,
2013-05-24 22:01:00,50.2,46.5,30.31,East,87,0.0,0.0,87,0.00,,,0.01,Wunderground v.1.15,2013-05-25 03:01:00,
2013-05-24 22:02:00,50.2,46.5,30.31,East,87,0.0,0.0,87,0.00,,,0.01,Wunderground v.1.15,2013-05-25 03:02:00,
2013-05-24 22:05:00,50.1,46.1,30.32,East,88,0.0,0.0,86,0.00,,,0.01,Wunderground v.1.15,2013-05-25 03:05:00,
2013-05-24 22:07:00,50.2,45.9,30.32,East,87,0.0,0.0,85,0.00,,,0.01,Wunderground v.1.15,2013-05-25 03:07:00,
2013-05-24 22:08:00,50.2,46.2,30.32,East,88,0.0,0.0,86,0.00,,,0.01,Wunderground v.1.15,2013-05-25 03:08:00,
2013-05-24 22:12:00,50.3,46.3,30.32,East,87,0.0,0.0,86,0.00,,,0.01,Wunderground v.1.15,2013-05-25 03:12:00,
2013-05-24 22:13:00,50.3,46.3,30.32,East,88,0.0,0.0,86,0.00,,,0.01,Wunderground v.1.15,2013-05-25 03:13:00,
2013-05-24 22:15:00,50.4,46.7,30.32,East,87,0.0,0.0,87,0.00,,,0.01,Wunderground v.1.15,2013-05-25 03:15:00,
2013-05-24 22:18:00,50.4,47.3,30.32,East,87,0.0,0.0,89,0.00,,,0.01,Wunderground v.1.15,2013-05-25 03:18:00,
2013-05-24 22:19:00,50.4,47.3,30.32,East,88,0.0,0.0,89,0.00,,,0.01,Wunderground v.1.15,2013-05-25 03:19:00,
2013-05-24 22:21:00,50.3,47.2,30.33,East,88,0.0,0.0,89,0.00,,,0.01,Wunderground v.1.15,2013-05-25 03:21:00,
2013-05-24 22:23:00,50.1,46.4,30.33,East,88,0.0,0.0,87,0.00,,,0.01,Wunderground v.1.15,2013-05-25 03:23:00,
2013-05-24 22:25:00,50.0,46.3,30.33,East,88,0.0,0.0,87,0.00,,,0.01,Wunderground v.1.15,2013-05-25 03:25:00,
2013-05-24 22:26:00,50.1,46.7,30.33,East,88,0.0,0.0,88,0.00,,,0.01,Wunderground v.1.15,2013-05-25 03:26:00,
2013-05-24 22:27:00,50.1,46.7,30.33,East,88,0.0,0.0,88,0.00,,,0.01,Wunderground v.1.15,2013-05-25 03:27:00,
2013-05-24 22:28:00,50.1,46.7,30.33,East,87,0.0,0.0,88,0.00,,,0.01,Wunderground v.1.15,2013-05-25 03:28:00,
2013-05-24 22:30:00,50.0,46.9,30.33,East,87,0.0,0.0,89,0.00,,,0.01,Wunderground v.1.15,2013-05-25 03:30:00,
2013-05-24 22:31:00,50.0,46.6,30.33,East,88,0.0,0.0,88,0.00,,,0.01,Wunderground v.1.15,2013-05-25 03:31:00,
2013-05-24 22:33:00,49.9,46.2,30.33,East,88,0.0,0.0,87,0.00,,,0.01,Wunderground v.1.15,2013-05-25 03:33:00,
2013-05-24 22:34:00,49.9,45.9,30.33,East,87,0.0,0.0,86,0.00,,,0.01,Wunderground v.1.15,2013-05-25 03:34:00,
2013-05-24 22:35:00,49.9,45.9,30.33,East,88,0.0,0.0,86,0.00,,,0.01,Wunderground v.1.15,2013-05-25 03:35:00,
2013-05-24 22:36:00,49.9,46.2,30.33,East,88,0.0,0.0,87,0.00,,,0.01,Wunderground v.1.15,2013-05-25 03:36:00,
2013-05-24 22:39:00,49.9,46.2,30.33,East,87,0.0,0.0,87,0.00,,,0.01,Wunderground v.1.15,2013-05-25 03:39:00,
2013-05-24 22:42:00,50.1,46.7,30.33,East,87,0.0,0.0,88,0.00,,,0.01,Wunderground v.1.15,2013-05-25 03:42:00,
2013-05-24 22:43:00,50.0,46.3,30.33,East,87,0.0,0.0,87,0.00,,,0.01,Wunderground v.1.15,2013-05-25 03:43:00,
2013-05-24 22:45:00,50.0,46.0,30.34,East,79,0.0,0.0,86,0.00,,,0.01,Wunderground v.1.15,2013-05-25 03:45:00,
2013-05-24 22:47:00,50.1,46.4,30.34,East,79,0.0,0.0,87,0.00,,,0.01,Wunderground v.1.15,2013-05-25 03:47:00,
2013-05-24 22:49:00,50.1,46.7,30.34,East,79,0.0,0.0,88,0.00,,,0.01,Wunderground v.1.15,2013-05-25 03:49:00,
2013-05-24 22:52:00,50.0,46.6,30.33,East,79,0.0,0.0,88,0.00,,,0.01,Wunderground v.1.15,2013-05-25 03:52:00,
2013-05-24 22:54:00,50.0,46.6,30.33,NE,37,0.0,0.0,88,0.00,,,0.01,Wunderground v.1.15,2013-05-25 03:54:00,
2013-05-24 22:55:00,50.0,46.6,30.33,NE,49,0.0,0.0,88,0.00,,,0.01,Wunderground v.1.15,2013-05-25 03:55:00,
2013-05-24 22:56:00,50.0,46.6,30.33,NE,49,0.0,0.0,88,0.00,,,0.01,Wunderground v.1.15,2013-05-25 03:56:00,
2013-05-24 22:57:00,50.1,46.7,30.33,East,81,0.0,0.0,88,0.00,,,0.01,Wunderground v.1.15,2013-05-25 03:57:00,
2013-05-24 22:58:00,50.2,46.5,30.33,ENE,65,0.0,0.0,87,0.00,,,0.01,Wunderground v.1.15,2013-05-25 03:58:00,
2013-05-24 23:01:00,50.4,46.4,30.33,East,94,0.0,0.0,86,0.00,,,0.01,Wunderground v.1.15,2013-05-25 04:01:00,
2013-05-24 23:02:00,50.6,46.3,30.33,North,353,0.0,0.0,85,0.00,,,0.01,Wunderground v.1.15,2013-05-25 04:02:00,
2013-05-24 23:03:00,50.9,46.2,30.33,NE,53,0.0,0.0,84,0.00,,,0.01,Wunderground v.1.15,2013-05-25 04:03:00,
2013-05-24 23:06:00,51.6,46.6,30.33,ENE,77,0.0,0.0,83,0.00,,,0.01,Wunderground v.1.15,2013-05-25 04:06:00,
2013-05-24 23:07:00,51.8,46.8,30.33,East,86,0.0,0.0,83,0.00,,,0.01,Wunderground v.1.15,2013-05-25 04:07:00,
2013-05-24 23:08:00,51.9,46.3,30.33,ENE,68,0.0,0.0,81,0.00,,,0.01,Wunderground v.1.15,2013-05-25 04:08:00,
2013-05-24 23:10:00,52.5,46.2,30.33,East,95,0.0,0.0,79,0.00,,,0.01,Wunderground v.1.15,2013-05-25 04:10:00,
2013-05-24 23:11:00,52.7,46.4,30.33,East,91,0.0,0.0,79,0.00,,,0.01,Wunderground v.1.15,2013-05-25 04:11:00,
2013-05-24 23:15:00,53.3,46.6,30.33,East,86,0.0,2.0,78,0.00,,,0.01,Wunderground v.1.15,2013-05-25 04:15:00,
2013-05-24 23:16:00,53.4,46.4,30.33,ENE,68,0.0,2.0,77,0.00,,,0.01,Wunderground v.1.15,2013-05-25 04:16:00,
2013-05-24 23:17:00,53.4,46.4,30.33,East,82,0.0,2.0,77,0.00,,,0.01,Wunderground v.1.15,2013-05-25 04:17:00,
2013-05-24 23:19:00,53.6,46.6,30.33,SE,130,0.0,2.0,77,0.00,,,0.01,Wunderground v.1.15,2013-05-25 04:19:00,
2013-05-24 23:22:00,53.9,46.5,30.33,East,86,0.0,3.0,76,0.00,,,0.01,Wunderground v.1.15,2013-05-25 04:22:00,
2013-05-24 23:23:00,53.9,46.5,30.33,East,100,0.0,3.0,76,0.00,,,0.01,Wunderground v.1.15,2013-05-25 04:23:00,
2013-05-24 23:24:00,54.0,46.3,30.33,ENE,57,0.0,3.0,75,0.00,,,0.01,Wunderground v.1.15,2013-05-25 04:24:00,
2013-05-24 23:25:00,54.0,46.6,30.33,East,79,0.0,3.0,76,0.00,,,0.01,Wunderground v.1.15,2013-05-25 04:25:00,
2013-05-24 23:26:00,54.0,46.6,30.33,East,101,0.0,3.0,76,0.00,,,0.01,Wunderground v.1.15,2013-05-25 04:26:00,
2013-05-24 23:27:00,54.1,46.3,30.33,ESE,110,0.0,3.0,75,0.00,,,0.01,Wunderground v.1.15,2013-05-25 04:27:00,
2013-05-24 23:29:00,54.1,46.7,30.33,ENE,68,0.0,3.0,76,0.00,,,0.01,Wunderground v.1.15,2013-05-25 04:29:00,
2013-05-24 23:31:00,54.1,46.3,30.33,East,95,1.0,1.0,75,0.00,,,0.01,Wunderground v.1.15,2013-05-25 04:31:00,
2013-05-24 23:32:00,54.1,46.7,30.33,East,89,1.0,1.0,76,0.00,,,0.01,Wunderground v.1.15,2013-05-25 04:32:00,
2013-05-24 23:34:00,54.1,46.3,30.33,East,91,1.0,3.0,75,0.00,,,0.01,Wunderground v.1.15,2013-05-25 04:34:00,
2013-05-24 23:36:00,54.0,46.3,30.32,East,88,1.0,3.0,75,0.00,,,0.01,Wunderground v.1.15,2013-05-25 04:36:00,
2013-05-24 23:37:00,54.0,46.3,30.32,ENE,63,1.0,4.0,75,0.00,,,0.01,Wunderground v.1.15,2013-05-25 04:37:00,
2013-05-24 23:38:00,54.0,46.3,30.32,ESE,114,1.0,4.0,75,0.00,,,0.01,Wunderground v.1.15,2013-05-25 04:38:00,
2013-05-24 23:39:00,53.9,46.5,30.32,ENE,65,1.0,4.0,76,0.00,,,0.01,Wunderground v.1.15,2013-05-25 04:39:00,
2013-05-24 23:40:00,53.9,46.2,30.32,ESE,103,1.0,3.0,75,0.00,,,0.01,Wunderground v.1.15,2013-05-25 04:40:00,
2013-05-24 23:42:00,53.9,46.2,30.32,ESE,111,1.0,3.0,75,0.00,,,0.01,Wunderground v.1.15,2013-05-25 04:42:00,
2013-05-24 23:44:00,53.9,46.2,30.32,East,79,1.0,4.0,75,0.00,,,0.01,Wunderground v.1.15,2013-05-25 04:44:00,
2013-05-24 23:45:00,53.9,46.2,30.32,East,91,1.0,4.0,75,0.00,,,0.01,Wunderground v.1.15,2013-05-25 04:45:00,
2013-05-24 23:49:00,53.9,45.8,30.32,East,82,1.0,4.0,74,0.00,,,0.01,Wunderground v.1.15,2013-05-25 04:49:00,
2013-05-24 23:50:00,53.9,45.8,30.32,ENE,68,1.0,5.0,74,0.00,,,0.01,Wunderground v.1.15,2013-05-25 04:50:00,
2013-05-24 23:52:00,53.9,45.4,30.32,ESE,107,1.0,5.0,73,0.00,,,0.01,Wunderground v.1.15,2013-05-25 04:52:00,
2013-05-24 23:54:00,54.0,45.5,30.32,SE,124,2.0,5.0,73,0.00,,,0.01,Wunderground v.1.15,2013-05-25 04:54:00,
2013-05-24 23:55:00,54.0,45.5,30.32,ENE,61,2.0,5.0,73,0.00,,,0.01,Wunderground v.1.15,2013-05-25 04:55:00,
2013-05-24 23:56:00,54.0,45.2,30.32,NE,46,2.0,5.0,72,0.00,,,0.01,Wunderground v.1.15,2013-05-25 04:56:00,
2013-05-24 23:57:00,54.1,45.3,30.32,East,84,2.0,5.0,72,0.00,,,0.01,Wunderground v.1.15,2013-05-25 04:57:00,